2016 Cux-Wetter.de -Die Nutzung der Wetterdaten nur mit ausdrcklicher Genehmigung
Wetterdaten: Mittwoch, 12.09.2018
Datum Zeit Temp. A. Feuchte A. Luftdruck Regen Wind Richtung Richtung Sonnenschein Solar Taupunkt Windchill Windben
12.09.2018 00:00 15,4 C 96 % 1016,3 hPa 0,0 l/m 9,8 km/h (2 Bft) W-SW 248 0 min 0 W/m 14,8 C 13,6 C 16,1 km/h (3 Bft)
12.09.2018 00:03 15,3 C 96 % 1016,3 hPa 0,0 l/m 11,2 km/h (2 Bft) W-NW 294 0 min 0 W/m 14,7 C 12,9 C 20,9 km/h (4 Bft)
12.09.2018 00:06 15,3 C 96 % 1016,3 hPa 0,0 l/m 11,1 km/h (2 Bft) W-NW 293 0 min 0 W/m 14,7 C 13,0 C 19,3 km/h (3 Bft)
12.09.2018 00:09 15,3 C 96 % 1016,3 hPa 0,0 l/m 9,6 km/h (2 Bft) W 271 0 min 0 W/m 14,7 C 13,6 C 17,7 km/h (3 Bft)
12.09.2018 00:12 15,3 C 96 % 1016,3 hPa 0,0 l/m 8,2 km/h (2 Bft) W-SW 256 0 min 0 W/m 14,7 C 14,3 C 17,7 km/h (3 Bft)
12.09.2018 00:15 15,3 C 96 % 1016,3 hPa 0,0 l/m 7,1 km/h (2 Bft) W 265 0 min 0 W/m 14,7 C 14,9 C 16,1 km/h (3 Bft)
12.09.2018 00:18 15,3 C 96 % 1016,3 hPa 0,0 l/m 7,7 km/h (2 Bft) SW 234 0 min 0 W/m 14,7 C 14,6 C 14,5 km/h (3 Bft)
12.09.2018 00:21 15,3 C 96 % 1016,3 hPa 0,0 l/m 9,5 km/h (2 Bft) W 268 0 min 0 W/m 14,7 C 13,7 C 16,1 km/h (3 Bft)
12.09.2018 00:24 15,3 C 96 % 1016,4 hPa 0,0 l/m 9,4 km/h (2 Bft) W-NW 297 0 min 0 W/m 14,7 C 13,7 C 19,3 km/h (3 Bft)
12.09.2018 00:27 15,3 C 96 % 1016,4 hPa 0,0 l/m 9,6 km/h (2 Bft) W-SW 257 0 min 0 W/m 14,7 C 13,6 C 16,1 km/h (3 Bft)
12.09.2018 00:30 15,3 C 96 % 1016,5 hPa 0,0 l/m 11,2 km/h (2 Bft) W-NW 289 0 min 0 W/m 14,7 C 12,9 C 22,5 km/h (4 Bft)
12.09.2018 00:33 15,3 C 96 % 1016,5 hPa 0,0 l/m 11,3 km/h (2 Bft) W-NW 290 0 min 0 W/m 14,7 C 12,9 C 20,9 km/h (4 Bft)
12.09.2018 00:36 15,3 C 96 % 1016,5 hPa 0,2 l/m 11,9 km/h (2 Bft) SW 236 0 min 0 W/m 14,7 C 12,7 C 19,3 km/h (3 Bft)
12.09.2018 00:39 15,3 C 96 % 1016,5 hPa 0,0 l/m 11,1 km/h (2 Bft) W-SW 239 0 min 0 W/m 14,7 C 13,0 C 22,5 km/h (4 Bft)
12.09.2018 00:42 15,2 C 96 % 1016,5 hPa 0,0 l/m 12,0 km/h (2 Bft) W 275 0 min 0 W/m 14,6 C 12,5 C 25,7 km/h (4 Bft)
12.09.2018 00:45 15,2 C 96 % 1016,5 hPa 0,0 l/m 10,5 km/h (2 Bft) W 280 0 min 0 W/m 14,6 C 13,1 C 19,3 km/h (3 Bft)
12.09.2018 00:48 15,2 C 96 % 1016,5 hPa 0,0 l/m 8,7 km/h (2 Bft) W 260 0 min 0 W/m 14,6 C 14,0 C 17,7 km/h (3 Bft)
12.09.2018 00:51 15,1 C 96 % 1016,4 hPa 0,0 l/m 10,0 km/h (2 Bft) W 273 0 min 0 W/m 14,5 C 13,2 C 19,3 km/h (3 Bft)
12.09.2018 00:54 15,1 C 96 % 1016,4 hPa 0,0 l/m 11,2 km/h (2 Bft) SW 216 0 min 0 W/m 14,5 C 12,7 C 20,9 km/h (4 Bft)
12.09.2018 00:57 15,1 C 96 % 1016,4 hPa 0,0 l/m 10,6 km/h (2 Bft) W-SW 258 0 min 0 W/m 14,5 C 13,0 C 19,3 km/h (3 Bft)
12.09.2018 01:00 15,0 C 96 % 1016,4 hPa 0,0 l/m 8,2 km/h (2 Bft) W 263 0 min 0 W/m 14,4 C 14,0 C 14,5 km/h (3 Bft)
12.09.2018 01:03 15,0 C 96 % 1016,3 hPa 0,0 l/m 11,5 km/h (2 Bft) W-SW 255 0 min 0 W/m 14,4 C 12,5 C 20,9 km/h (4 Bft)
12.09.2018 01:06 15,0 C 96 % 1016,3 hPa 0,0 l/m 8,2 km/h (2 Bft) SW 219 0 min 0 W/m 14,4 C 14,0 C 16,1 km/h (3 Bft)
12.09.2018 01:09 14,9 C 96 % 1016,2 hPa 0,0 l/m 8,8 km/h (2 Bft) W-NW 290 0 min 0 W/m 14,3 C 13,6 C 14,5 km/h (3 Bft)
12.09.2018 01:12 14,9 C 96 % 1016,2 hPa 0,0 l/m 8,7 km/h (2 Bft) W 272 0 min 0 W/m 14,3 C 13,6 C 14,5 km/h (3 Bft)
12.09.2018 01:15 14,9 C 96 % 1016,2 hPa 0,0 l/m 7,0 km/h (2 Bft) SW 224 0 min 0 W/m 14,3 C 14,6 C 14,5 km/h (3 Bft)
12.09.2018 01:18 14,9 C 96 % 1016,1 hPa 0,0 l/m 9,2 km/h (2 Bft) W 267 0 min 0 W/m 14,3 C 13,4 C 16,1 km/h (3 Bft)
12.09.2018 01:21 14,9 C 96 % 1016,1 hPa 0,0 l/m 10,4 km/h (2 Bft) W-SW 241 0 min 0 W/m 14,3 C 12,8 C 16,1 km/h (3 Bft)
12.09.2018 01:24 14,8 C 96 % 1016,1 hPa 0,0 l/m 8,5 km/h (2 Bft) W 268 0 min 0 W/m 14,2 C 13,6 C 16,1 km/h (3 Bft)
12.09.2018 01:27 14,8 C 96 % 1016,1 hPa 0,0 l/m 10,8 km/h (2 Bft) W 264 0 min 0 W/m 14,2 C 12,5 C 17,7 km/h (3 Bft)
12.09.2018 01:30 14,8 C 96 % 1016,1 hPa 0,0 l/m 7,2 km/h (2 Bft) W 263 0 min 0 W/m 14,2 C 14,3 C 14,5 km/h (3 Bft)
12.09.2018 01:33 14,7 C 96 % 1016,1 hPa 0,0 l/m 6,3 km/h (2 Bft) SW 226 0 min 0 W/m 14,1 C 14,7 C 11,3 km/h (2 Bft)
12.09.2018 01:36 14,7 C 96 % 1016,1 hPa 0,0 l/m 10,9 km/h (2 Bft) W-SW 257 0 min 0 W/m 14,1 C 12,4 C 16,1 km/h (3 Bft)
12.09.2018 01:39 14,7 C 96 % 1016,2 hPa 0,0 l/m 8,2 km/h (2 Bft) W-NW 290 0 min 0 W/m 14,1 C 13,7 C 14,5 km/h (3 Bft)
12.09.2018 01:42 14,7 C 96 % 1016,3 hPa 0,0 l/m 8,8 km/h (2 Bft) W-SW 250 0 min 0 W/m 14,1 C 13,4 C 19,3 km/h (3 Bft)
12.09.2018 01:45 14,7 C 96 % 1016,3 hPa 0,0 l/m 5,9 km/h (2 Bft) W 262 0 min 0 W/m 14,1 C 14,7 C 9,7 km/h (2 Bft)
12.09.2018 01:48 14,7 C 96 % 1016,1 hPa 0,0 l/m 8,1 km/h (2 Bft) SW 229 0 min 0 W/m 14,1 C 13,7 C 16,1 km/h (3 Bft)
12.09.2018 01:51 14,7 C 96 % 1016,1 hPa 0,0 l/m 8,6 km/h (2 Bft) W-SW 240 0 min 0 W/m 14,1 C 13,5 C 14,5 km/h (3 Bft)
12.09.2018 01:54 14,7 C 96 % 1016,1 hPa 0,0 l/m 6,9 km/h (2 Bft) W-SW 254 0 min 0 W/m 14,1 C 14,4 C 12,9 km/h (3 Bft)
12.09.2018 01:57 14,7 C 96 % 1016,0 hPa 0,0 l/m 8,2 km/h (2 Bft) W-SW 252 0 min 0 W/m 14,1 C 13,7 C 16,1 km/h (3 Bft)
12.09.2018 02:00 14,7 C 96 % 1016,1 hPa 0,0 l/m 8,6 km/h (2 Bft) W-SW 248 0 min 0 W/m 14,1 C 13,5 C 19,3 km/h (3 Bft)
12.09.2018 02:03 14,7 C 96 % 1016,1 hPa 0,0 l/m 6,4 km/h (2 Bft) W-SW 246 0 min 0 W/m 14,1 C 14,7 C 12,9 km/h (3 Bft)
12.09.2018 02:06 14,7 C 96 % 1016,1 hPa 0,0 l/m 6,6 km/h (2 Bft) W 269 0 min 0 W/m 14,1 C 14,6 C 16,1 km/h (3 Bft)
12.09.2018 02:09 14,7 C 96 % 1016,1 hPa 0,0 l/m 9,3 km/h (2 Bft) W-SW 244 0 min 0 W/m 14,1 C 13,1 C 16,1 km/h (3 Bft)
12.09.2018 02:12 14,7 C 96 % 1016,1 hPa 0,0 l/m 7,6 km/h (2 Bft) W-NW 298 0 min 0 W/m 14,1 C 14,0 C 14,5 km/h (3 Bft)
12.09.2018 02:15 14,6 C 96 % 1016,1 hPa 0,0 l/m 6,4 km/h (2 Bft) W 269 0 min 0 W/m 14,0 C 14,6 C 12,9 km/h (3 Bft)
12.09.2018 02:18 14,6 C 96 % 1016,1 hPa 0,0 l/m 6,3 km/h (2 Bft) W-SW 257 0 min 0 W/m 14,0 C 14,6 C 12,9 km/h (3 Bft)
12.09.2018 02:21 14,5 C 96 % 1016,1 hPa 0,0 l/m 7,7 km/h (2 Bft) W-SW 242 0 min 0 W/m 13,9 C 13,7 C 14,5 km/h (3 Bft)
12.09.2018 02:24 14,4 C 96 % 1016,1 hPa 0,0 l/m 7,0 km/h (2 Bft) SW 234 0 min 0 W/m 13,8 C 14,1 C 14,5 km/h (3 Bft)
12.09.2018 02:27 14,3 C 96 % 1016,2 hPa 0,0 l/m 5,1 km/h (1 Bft) SW 235 0 min 0 W/m 13,7 C 14,3 C 11,3 km/h (2 Bft)
12.09.2018 02:30 14,3 C 96 % 1016,2 hPa 0,0 l/m 5,6 km/h (2 Bft) S 183 0 min 0 W/m 13,7 C 14,3 C 11,3 km/h (2 Bft)
12.09.2018 02:33 14,3 C 96 % 1016,2 hPa 0,0 l/m 5,7 km/h (2 Bft) W-SW 250 0 min 0 W/m 13,7 C 14,3 C 11,3 km/h (2 Bft)
12.09.2018 02:36 14,3 C 96 % 1016,2 hPa 0,0 l/m 6,7 km/h (2 Bft) W-SW 249 0 min 0 W/m 13,7 C 14,1 C 12,9 km/h (3 Bft)
12.09.2018 02:39 14,3 C 96 % 1016,1 hPa 0,0 l/m 5,6 km/h (2 Bft) SW 233 0 min 0 W/m 13,7 C 14,3 C 11,3 km/h (2 Bft)
12.09.2018 02:42 14,4 C 96 % 1016,2 hPa 0,0 l/m 6,8 km/h (2 Bft) W-SW 252 0 min 0 W/m 13,8 C 14,2 C 17,7 km/h (3 Bft)
12.09.2018 02:45 14,4 C 96 % 1016,2 hPa 0,0 l/m 7,5 km/h (2 Bft) S-SW 194 0 min 0 W/m 13,8 C 13,8 C 16,1 km/h (3 Bft)
12.09.2018 02:48 14,4 C 96 % 1016,2 hPa 0,0 l/m 6,8 km/h (2 Bft) W-SW 244 0 min 0 W/m 13,8 C 14,2 C 12,9 km/h (3 Bft)
12.09.2018 02:51 14,5 C 97 % 1016,2 hPa 0,0 l/m 9,2 km/h (2 Bft) S-SW 209 0 min 0 W/m 14,0 C 13,0 C 14,5 km/h (3 Bft)
12.09.2018 02:54 14,5 C 97 % 1016,1 hPa 0,0 l/m 5,8 km/h (2 Bft) S-SW 200 0 min 0 W/m 14,0 C 14,5 C 9,7 km/h (2 Bft)
12.09.2018 02:57 14,5 C 97 % 1016,0 hPa 0,0 l/m 7,5 km/h (2 Bft) W-SW 242 0 min 0 W/m 14,0 C 13,9 C 12,9 km/h (3 Bft)
12.09.2018 03:00 14,6 C 97 % 1016,1 hPa 0,0 l/m 8,0 km/h (2 Bft) SW 236 0 min 0 W/m 14,1 C 13,7 C 12,9 km/h (3 Bft)
12.09.2018 03:03 14,6 C 96 % 1016,1 hPa 0,0 l/m 7,3 km/h (2 Bft) SW 229 0 min 0 W/m 14,0 C 14,1 C 11,3 km/h (2 Bft)
12.09.2018 03:06 14,6 C 96 % 1016,1 hPa 0,0 l/m 6,7 km/h (2 Bft) SW 225 0 min 0 W/m 14,0 C 14,4 C 11,3 km/h (2 Bft)
12.09.2018 03:09 14,6 C 96 % 1016,1 hPa 0,0 l/m 7,3 km/h (2 Bft) W 271 0 min 0 W/m 14,0 C 14,1 C 16,1 km/h (3 Bft)
12.09.2018 03:12 14,5 C 96 % 1016,1 hPa 0,0 l/m 6,4 km/h (2 Bft) W-SW 245 0 min 0 W/m 13,9 C 14,5 C 12,9 km/h (3 Bft)
12.09.2018 03:15 14,6 C 96 % 1016,1 hPa 0,0 l/m 6,6 km/h (2 Bft) W 259 0 min 0 W/m 14,0 C 14,5 C 11,3 km/h (2 Bft)
12.09.2018 03:18 14,6 C 96 % 1016,1 hPa 0,0 l/m 5,3 km/h (1 Bft) SW 225 0 min 0 W/m 14,0 C 14,6 C 9,7 km/h (2 Bft)
12.09.2018 03:21 14,5 C 96 % 1016,1 hPa 0,0 l/m 5,8 km/h (2 Bft) SW 225 0 min 0 W/m 13,9 C 14,5 C 8,0 km/h (2 Bft)
12.09.2018 03:24 14,5 C 96 % 1016,1 hPa 0,0 l/m 5,0 km/h (1 Bft) SW 223 0 min 0 W/m 13,9 C 14,5 C 9,7 km/h (2 Bft)
12.09.2018 03:27 14,5 C 96 % 1016,2 hPa 0,0 l/m 5,5 km/h (2 Bft) W-SW 237 0 min 0 W/m 13,9 C 14,5 C 9,7 km/h (2 Bft)
12.09.2018 03:30 14,4 C 96 % 1016,1 hPa 0,0 l/m 5,8 km/h (2 Bft) W-SW 254 0 min 0 W/m 13,8 C 14,4 C 12,9 km/h (3 Bft)
12.09.2018 03:33 14,4 C 96 % 1016,0 hPa 0,0 l/m 3,8 km/h (1 Bft) SW 215 0 min 0 W/m 13,8 C 14,4 C 6,4 km/h (2 Bft)
12.09.2018 03:36 14,3 C 96 % 1015,8 hPa 0,0 l/m 5,6 km/h (2 Bft) SW 225 0 min 0 W/m 13,7 C 14,3 C 9,7 km/h (2 Bft)
12.09.2018 03:39 14,3 C 96 % 1015,7 hPa 0,0 l/m 6,8 km/h (2 Bft) SW 220 0 min 0 W/m 13,7 C 14,1 C 9,7 km/h (2 Bft)
12.09.2018 03:42 14,3 C 96 % 1015,8 hPa 0,0 l/m 4,4 km/h (1 Bft) SW 220 0 min 0 W/m 13,7 C 14,3 C 8,0 km/h (2 Bft)
12.09.2018 03:45 14,3 C 96 % 1015,7 hPa 0,0 l/m 4,9 km/h (1 Bft) W-SW 237 0 min 0 W/m 13,7 C 14,3 C 8,0 km/h (2 Bft)
12.09.2018 03:48 14,3 C 96 % 1015,8 hPa 0,0 l/m 5,5 km/h (2 Bft) W-SW 240 0 min 0 W/m 13,7 C 14,3 C 8,0 km/h (2 Bft)
12.09.2018 03:51 14,4 C 96 % 1015,8 hPa 0,0 l/m 4,8 km/h (1 Bft) SW 226 0 min 0 W/m 13,8 C 14,4 C 8,0 km/h (2 Bft)
12.09.2018 03:54 14,4 C 96 % 1015,8 hPa 0,0 l/m 3,9 km/h (1 Bft) SW 217 0 min 0 W/m 13,8 C 14,4 C 6,4 km/h (2 Bft)
12.09.2018 03:57 14,4 C 96 % 1015,8 hPa 0,0 l/m 4,6 km/h (1 Bft) SW 215 0 min 0 W/m 13,8 C 14,4 C 8,0 km/h (2 Bft)
12.09.2018 04:00 14,4 C 96 % 1015,7 hPa 0,0 l/m 5,4 km/h (2 Bft) SW 223 0 min 0 W/m 13,8 C 14,4 C 8,0 km/h (2 Bft)
12.09.2018 04:03 14,4 C 96 % 1015,8 hPa 0,0 l/m 6,0 km/h (2 Bft) SW 219 0 min 0 W/m 13,8 C 14,4 C 9,7 km/h (2 Bft)
12.09.2018 04:06 14,4 C 96 % 1015,7 hPa 0,0 l/m 3,1 km/h (1 Bft) SW 219 0 min 0 W/m 13,8 C 14,4 C 6,4 km/h (2 Bft)
12.09.2018 04:09 14,4 C 96 % 1015,7 hPa 0,0 l/m 3,7 km/h (1 Bft) SW 219 0 min 0 W/m 13,8 C 14,4 C 6,4 km/h (2 Bft)
12.09.2018 04:12 14,5 C 96 % 1015,7 hPa 0,0 l/m 4,0 km/h (1 Bft) S 177 0 min 0 W/m 13,9 C 14,5 C 6,4 km/h (2 Bft)
12.09.2018 04:15 14,4 C 96 % 1015,6 hPa 0,0 l/m 3,4 km/h (1 Bft) S 177 0 min 0 W/m 13,8 C 14,4 C 6,4 km/h (2 Bft)
12.09.2018 04:18 14,5 C 96 % 1015,6 hPa 0,0 l/m 5,5 km/h (2 Bft) SW 215 0 min 0 W/m 13,9 C 14,5 C 9,7 km/h (2 Bft)
12.09.2018 04:21 14,5 C 96 % 1015,6 hPa 0,0 l/m 5,0 km/h (1 Bft) S-SW 198 0 min 0 W/m 13,9 C 14,5 C 9,7 km/h (2 Bft)
12.09.2018 04:24 14,6 C 96 % 1015,6 hPa 0,0 l/m 6,3 km/h (2 Bft) SW 215 0 min 0 W/m 14,0 C 14,6 C 11,3 km/h (2 Bft)
12.09.2018 04:27 14,6 C 96 % 1015,6 hPa 0,0 l/m 6,4 km/h (2 Bft) SW 234 0 min 0 W/m 14,0 C 14,6 C 11,3 km/h (2 Bft)
12.09.2018 04:30 14,6 C 96 % 1015,7 hPa 0,0 l/m 7,7 km/h (2 Bft) S-SW 213 0 min 0 W/m 14,0 C 13,8 C 12,9 km/h (3 Bft)
12.09.2018 04:33 14,6 C 96 % 1015,7 hPa 0,0 l/m 6,0 km/h (2 Bft) SW 227 0 min 0 W/m 14,0 C 14,6 C 9,7 km/h (2 Bft)
12.09.2018 04:36 14,6 C 96 % 1015,6 hPa 0,0 l/m 5,8 km/h (2 Bft) S-SW 200 0 min 0 W/m 14,0 C 14,6 C 9,7 km/h (2 Bft)
12.09.2018 04:39 14,6 C 96 % 1015,4 hPa 0,0 l/m 5,3 km/h (1 Bft) S-SW 207 0 min 0 W/m 14,0 C 14,6 C 9,7 km/h (2 Bft)
12.09.2018 04:42 14,6 C 96 % 1015,4 hPa 0,0 l/m 6,5 km/h (2 Bft) S-SW 194 0 min 0 W/m 14,0 C 14,6 C 11,3 km/h (2 Bft)
12.09.2018 04:45 14,7 C 96 % 1015,2 hPa 0,0 l/m 7,7 km/h (2 Bft) S-SW 195 0 min 0 W/m 14,1 C 14,0 C 16,1 km/h (3 Bft)
12.09.2018 04:48 14,7 C 96 % 1015,0 hPa 0,0 l/m 6,2 km/h (2 Bft) S 170 0 min 0 W/m 14,1 C 14,7 C 11,3 km/h (2 Bft)
12.09.2018 04:51 14,7 C 96 % 1014,9 hPa 0,0 l/m 6,3 km/h (2 Bft) S 189 0 min 0 W/m 14,1 C 14,7 C 12,9 km/h (3 Bft)
12.09.2018 04:54 14,7 C 96 % 1015,2 hPa 0,0 l/m 7,0 km/h (2 Bft) S-SW 213 0 min 0 W/m 14,1 C 14,4 C 11,3 km/h (2 Bft)
12.09.2018 04:57 14,7 C 96 % 1015,2 hPa 0,0 l/m 7,1 km/h (2 Bft) SW 232 0 min 0 W/m 14,1 C 14,3 C 14,5 km/h (3 Bft)
12.09.2018 05:00 14,7 C 96 % 1015,3 hPa 0,0 l/m 7,3 km/h (2 Bft) SW 225 0 min 0 W/m 14,1 C 14,2 C 11,3 km/h (2 Bft)
12.09.2018 05:03 14,7 C 96 % 1015,2 hPa 0,0 l/m 6,6 km/h (2 Bft) SW 232 0 min 0 W/m 14,1 C 14,6 C 9,7 km/h (2 Bft)
12.09.2018 05:06 14,7 C 96 % 1015,2 hPa 0,0 l/m 6,8 km/h (2 Bft) SW 219 0 min 0 W/m 14,1 C 14,5 C 11,3 km/h (2 Bft)
12.09.2018 05:09 14,7 C 96 % 1015,2 hPa 0,0 l/m 6,3 km/h (2 Bft) W-SW 237 0 min 0 W/m 14,1 C 14,7 C 11,3 km/h (2 Bft)
12.09.2018 05:12 14,7 C 96 % 1015,1 hPa 0,0 l/m 6,4 km/h (2 Bft) S-SW 197 0 min 0 W/m 14,1 C 14,7 C 12,9 km/h (3 Bft)
12.09.2018 05:15 14,7 C 96 % 1015,1 hPa 0,0 l/m 6,3 km/h (2 Bft) SW 229 0 min 0 W/m 14,1 C 14,7 C 12,9 km/h (3 Bft)
12.09.2018 05:18 14,7 C 96 % 1015,2 hPa 0,0 l/m 7,7 km/h (2 Bft) SW 229 0 min 0 W/m 14,1 C 14,0 C 11,3 km/h (2 Bft)
12.09.2018 05:21 14,7 C 96 % 1015,2 hPa 0,0 l/m 6,6 km/h (2 Bft) SW 222 0 min 0 W/m 14,1 C 14,6 C 9,7 km/h (2 Bft)
12.09.2018 05:24 14,7 C 96 % 1015,2 hPa 0,0 l/m 5,7 km/h (2 Bft) S-SW 201 0 min 0 W/m 14,1 C 14,7 C 9,7 km/h (2 Bft)
12.09.2018 05:27 14,7 C 96 % 1015,2 hPa 0,0 l/m 6,4 km/h (2 Bft) SW 217 0 min 0 W/m 14,1 C 14,7 C 9,7 km/h (2 Bft)
12.09.2018 05:30 14,7 C 96 % 1015,1 hPa 0,0 l/m 6,0 km/h (2 Bft) SW 222 0 min 0 W/m 14,1 C 14,7 C 9,7 km/h (2 Bft)
12.09.2018 05:33 14,7 C 96 % 1015,1 hPa 0,0 l/m 5,1 km/h (1 Bft) S-SW 205 0 min 0 W/m 14,1 C 14,7 C 11,3 km/h (2 Bft)
12.09.2018 05:36 14,7 C 96 % 1015,1 hPa 0,0 l/m 6,2 km/h (2 Bft) SW 215 0 min 0 W/m 14,1 C 14,7 C 11,3 km/h (2 Bft)
12.09.2018 05:39 14,7 C 96 % 1015,0 hPa 0,0 l/m 4,9 km/h (1 Bft) S-SW 213 0 min 0 W/m 14,1 C 14,7 C 8,0 km/h (2 Bft)
12.09.2018 05:42 14,7 C 96 % 1014,9 hPa 0,0 l/m 6,0 km/h (2 Bft) S-SW 199 0 min 0 W/m 14,1 C 14,7 C 9,7 km/h (2 Bft)
12.09.2018 05:45 14,7 C 96 % 1015,0 hPa 0,0 l/m 6,3 km/h (2 Bft) S 183 0 min 0 W/m 14,1 C 14,7 C 11,3 km/h (2 Bft)
12.09.2018 05:48 14,7 C 96 % 1014,9 hPa 0,0 l/m 6,7 km/h (2 Bft) SW 231 0 min 0 W/m 14,1 C 14,5 C 9,7 km/h (2 Bft)
12.09.2018 05:51 14,7 C 96 % 1015,1 hPa 0,0 l/m 6,9 km/h (2 Bft) SW 216 0 min 0 W/m 14,1 C 14,4 C 12,9 km/h (3 Bft)
12.09.2018 05:54 14,7 C 96 % 1015,2 hPa 0,0 l/m 7,4 km/h (2 Bft) SW 225 0 min 0 W/m 14,1 C 14,1 C 9,7 km/h (2 Bft)
12.09.2018 05:57 14,7 C 96 % 1015,1 hPa 0,0 l/m 6,8 km/h (2 Bft) SW 217 0 min 0 W/m 14,1 C 14,5 C 9,7 km/h (2 Bft)
12.09.2018 06:00 14,7 C 96 % 1015,1 hPa 0,0 l/m 6,1 km/h (2 Bft) S-SW 208 0 min 0 W/m 14,1 C 14,7 C 9,7 km/h (2 Bft)
12.09.2018 06:03 14,7 C 96 % 1015,1 hPa 0,0 l/m 6,0 km/h (2 Bft) S-SW 212 0 min 0 W/m 14,1 C 14,7 C 11,3 km/h (2 Bft)
12.09.2018 06:06 14,7 C 96 % 1015,1 hPa 0,0 l/m 6,1 km/h (2 Bft) SW 220 0 min 0 W/m 14,1 C 14,7 C 11,3 km/h (2 Bft)
12.09.2018 06:09 14,7 C 96 % 1015,1 hPa 0,0 l/m 6,6 km/h (2 Bft) SW 219 0 min 0 W/m 14,1 C 14,6 C 11,3 km/h (2 Bft)
12.09.2018 06:12 14,7 C 96 % 1015,1 hPa 0,0 l/m 5,6 km/h (2 Bft) SW 229 0 min 0 W/m 14,1 C 14,7 C 9,7 km/h (2 Bft)
12.09.2018 06:15 14,7 C 96 % 1015,1 hPa 0,0 l/m 6,9 km/h (2 Bft) S-SW 209 0 min 0 W/m 14,1 C 14,4 C 9,7 km/h (2 Bft)
12.09.2018 06:18 14,7 C 96 % 1015,0 hPa 0,0 l/m 5,8 km/h (2 Bft) S-SW 200 0 min 0 W/m 14,1 C 14,7 C 11,3 km/h (2 Bft)
12.09.2018 06:21 14,7 C 96 % 1015,1 hPa 0,0 l/m 6,3 km/h (2 Bft) S-SW 200 0 min 0 W/m 14,1 C 14,7 C 9,7 km/h (2 Bft)
12.09.2018 06:24 14,7 C 96 % 1015,1 hPa 0,0 l/m 7,1 km/h (2 Bft) S-SW 197 0 min 0 W/m 14,1 C 14,3 C 11,3 km/h (2 Bft)
12.09.2018 06:27 14,7 C 96 % 1015,1 hPa 0,0 l/m 6,6 km/h (2 Bft) SW 215 0 min 0 W/m 14,1 C 14,6 C 9,7 km/h (2 Bft)
12.09.2018 06:30 14,7 C 96 % 1015,2 hPa 0,0 l/m 7,2 km/h (2 Bft) SW 224 0 min 0 W/m 14,1 C 14,2 C 12,9 km/h (3 Bft)
12.09.2018 06:33 14,7 C 96 % 1015,3 hPa 0,0 l/m 8,4 km/h (2 Bft) S-SW 209 0 min 0 W/m 14,1 C 13,6 C 12,9 km/h (3 Bft)
12.09.2018 06:36 14,7 C 96 % 1015,4 hPa 0,0 l/m 9,3 km/h (2 Bft) S-SW 202 0 min 0 W/m 14,1 C 13,1 C 12,9 km/h (3 Bft)
12.09.2018 06:39 14,7 C 96 % 1015,4 hPa 0,0 l/m 8,3 km/h (2 Bft) SW 231 0 min 0 W/m 14,1 C 13,6 C 14,5 km/h (3 Bft)
12.09.2018 06:42 14,6 C 96 % 1015,4 hPa 0,0 l/m 10,3 km/h (2 Bft) SW 216 0 min 0 W/m 14,0 C 12,5 C 16,1 km/h (3 Bft)
12.09.2018 06:45 14,6 C 95 % 1015,5 hPa 0,0 l/m 10,9 km/h (2 Bft) SW 219 0 min 0 W/m 13,8 C 12,3 C 16,1 km/h (3 Bft)
12.09.2018 06:48 14,6 C 95 % 1015,5 hPa 0,0 l/m 11,7 km/h (2 Bft) SW 220 0 min 0 W/m 13,8 C 11,9 C 17,7 km/h (3 Bft)
12.09.2018 06:51 14,6 C 95 % 1015,5 hPa 0,0 l/m 11,5 km/h (2 Bft) SW 234 0 min 0 W/m 13,8 C 12,0 C 17,7 km/h (3 Bft)
12.09.2018 06:54 14,6 C 95 % 1015,7 hPa 0,0 l/m 10,2 km/h (2 Bft) SW 234 0 min 0 W/m 13,8 C 12,6 C 16,1 km/h (3 Bft)
12.09.2018 06:57 14,6 C 95 % 1015,7 hPa 0,0 l/m 9,1 km/h (2 Bft) W-SW 242 0 min 0 W/m 13,8 C 13,1 C 16,1 km/h (3 Bft)
12.09.2018 07:00 14,5 C 95 % 1015,6 hPa 0,0 l/m 9,3 km/h (2 Bft) SW 215 0 min 0 W/m 13,7 C 12,9 C 14,5 km/h (3 Bft)
12.09.2018 07:03 14,5 C 95 % 1015,8 hPa 0,0 l/m 9,5 km/h (2 Bft) W-SW 240 0 min 0 W/m 13,7 C 12,8 C 17,7 km/h (3 Bft)
12.09.2018 07:06 14,5 C 95 % 1015,7 hPa 0,0 l/m 8,8 km/h (2 Bft) SW 220 0 min 0 W/m 13,7 C 13,2 C 16,1 km/h (3 Bft)
12.09.2018 07:09 14,5 C 95 % 1015,7 hPa 0,0 l/m 8,6 km/h (2 Bft) SW 220 0 min 0 W/m 13,7 C 13,3 C 14,5 km/h (3 Bft)
12.09.2018 07:12 14,5 C 95 % 1015,6 hPa 0,0 l/m 5,5 km/h (2 Bft) SW 221 0 min 0 W/m 13,7 C 14,5 C 9,7 km/h (2 Bft)
12.09.2018 07:15 14,5 C 95 % 1015,5 hPa 0,0 l/m 6,4 km/h (2 Bft) SW 223 0 min 5 W/m 13,7 C 14,5 C 12,9 km/h (3 Bft)
12.09.2018 07:18 14,5 C 95 % 1015,5 hPa 0,0 l/m 7,4 km/h (2 Bft) SW 217 0 min 9 W/m 13,7 C 13,9 C 14,5 km/h (3 Bft)
12.09.2018 07:21 14,5 C 95 % 1015,5 hPa 0,0 l/m 7,4 km/h (2 Bft) S-SW 196 0 min 16 W/m 13,7 C 13,9 C 14,5 km/h (3 Bft)
12.09.2018 07:24 14,6 C 95 % 1015,4 hPa 0,0 l/m 6,1 km/h (2 Bft) SW 219 0 min 11 W/m 13,8 C 14,6 C 8,0 km/h (2 Bft)
12.09.2018 07:27 14,6 C 95 % 1015,5 hPa 0,0 l/m 6,5 km/h (2 Bft) S-SW 202 0 min 11 W/m 13,8 C 14,6 C 9,7 km/h (2 Bft)
12.09.2018 07:30 14,6 C 95 % 1015,4 hPa 0,0 l/m 5,1 km/h (1 Bft) S-SW 209 0 min 18 W/m 13,8 C 14,6 C 8,0 km/h (2 Bft)
12.09.2018 07:33 14,6 C 95 % 1015,6 hPa 0,0 l/m 7,1 km/h (2 Bft) SW 220 0 min 14 W/m 13,8 C 14,2 C 9,7 km/h (2 Bft)
12.09.2018 07:36 14,6 C 95 % 1015,6 hPa 0,0 l/m 6,2 km/h (2 Bft) S-SW 202 0 min 18 W/m 13,8 C 14,6 C 9,7 km/h (2 Bft)
12.09.2018 07:39 14,6 C 95 % 1015,4 hPa 0,0 l/m 5,4 km/h (2 Bft) SW 231 0 min 26 W/m 13,8 C 14,6 C 11,3 km/h (2 Bft)
12.09.2018 07:42 14,7 C 95 % 1015,5 hPa 0,0 l/m 7,8 km/h (2 Bft) SW 215 0 min 23 W/m 13,9 C 13,9 C 14,5 km/h (3 Bft)
12.09.2018 07:45 14,7 C 95 % 1015,4 hPa 0,0 l/m 6,3 km/h (2 Bft) SW 217 0 min 30 W/m 13,9 C 14,7 C 9,7 km/h (2 Bft)
12.09.2018 07:48 14,7 C 95 % 1015,3 hPa 0,0 l/m 7,9 km/h (2 Bft) SW 229 0 min 37 W/m 13,9 C 13,8 C 12,9 km/h (3 Bft)
12.09.2018 07:51 14,7 C 95 % 1015,4 hPa 0,0 l/m 8,3 km/h (2 Bft) S-SW 209 0 min 28 W/m 13,9 C 13,6 C 12,9 km/h (3 Bft)
12.09.2018 07:54 14,8 C 95 % 1015,5 hPa 0,0 l/m 8,1 km/h (2 Bft) S-SW 213 0 min 26 W/m 14,0 C 13,8 C 14,5 km/h (3 Bft)
12.09.2018 07:57 14,8 C 95 % 1015,4 hPa 0,0 l/m 8,1 km/h (2 Bft) S 180 0 min 25 W/m 14,0 C 13,8 C 12,9 km/h (3 Bft)
12.09.2018 08:00 14,8 C 95 % 1015,4 hPa 0,0 l/m 9,3 km/h (2 Bft) SW 223 0 min 26 W/m 14,0 C 13,2 C 19,3 km/h (3 Bft)
12.09.2018 08:03 14,8 C 95 % 1015,3 hPa 0,0 l/m 7,8 km/h (2 Bft) SW 216 0 min 32 W/m 14,0 C 14,0 C 17,7 km/h (3 Bft)
12.09.2018 08:06 14,8 C 95 % 1015,4 hPa 0,0 l/m 8,8 km/h (2 Bft) SW 233 0 min 21 W/m 14,0 C 13,5 C 12,9 km/h (3 Bft)
12.09.2018 08:09 14,7 C 95 % 1015,5 hPa 0,0 l/m 11,8 km/h (2 Bft) SW 225 0 min 21 W/m 13,9 C 12,0 C 17,7 km/h (3 Bft)
12.09.2018 08:12 14,7 C 95 % 1015,4 hPa 0,0 l/m 11,3 km/h (2 Bft) S-SW 199 0 min 25 W/m 13,9 C 12,2 C 16,1 km/h (3 Bft)
12.09.2018 08:15 14,7 C 95 % 1015,4 hPa 0,0 l/m 10,0 km/h (2 Bft) SW 220 0 min 32 W/m 13,9 C 12,8 C 14,5 km/h (3 Bft)
12.09.2018 08:18 14,7 C 95 % 1015,6 hPa 0,0 l/m 9,6 km/h (2 Bft) SW 219 0 min 25 W/m 13,9 C 13,0 C 14,5 km/h (3 Bft)
12.09.2018 08:21 14,7 C 95 % 1015,7 hPa 0,0 l/m 9,8 km/h (2 Bft) W-SW 244 0 min 21 W/m 13,9 C 12,9 C 14,5 km/h (3 Bft)
12.09.2018 08:24 14,6 C 95 % 1015,7 hPa 0,0 l/m 8,6 km/h (2 Bft) SW 231 0 min 25 W/m 13,8 C 13,4 C 16,1 km/h (3 Bft)
12.09.2018 08:27 14,6 C 94 % 1015,5 hPa 0,0 l/m 10,4 km/h (2 Bft) SW 228 0 min 19 W/m 13,6 C 12,5 C 17,7 km/h (3 Bft)
12.09.2018 08:30 14,6 C 94 % 1015,7 hPa 0,0 l/m 11,3 km/h (2 Bft) SW 219 0 min 19 W/m 13,6 C 12,1 C 20,9 km/h (4 Bft)
12.09.2018 08:33 14,6 C 94 % 1015,9 hPa 0,0 l/m 9,7 km/h (2 Bft) W-SW 249 0 min 16 W/m 13,6 C 12,8 C 16,1 km/h (3 Bft)
12.09.2018 08:36 14,6 C 94 % 1015,7 hPa 0,0 l/m 6,0 km/h (2 Bft) S-SW 200 0 min 26 W/m 13,6 C 14,6 C 8,0 km/h (2 Bft)
12.09.2018 08:39 14,6 C 94 % 1015,8 hPa 0,0 l/m 10,4 km/h (2 Bft) SW 227 0 min 28 W/m 13,6 C 12,5 C 16,1 km/h (3 Bft)
12.09.2018 08:42 14,6 C 94 % 1016,0 hPa 0,0 l/m 12,6 km/h (3 Bft) SW 232 0 min 21 W/m 13,6 C 11,6 C 22,5 km/h (4 Bft)
12.09.2018 08:45 14,6 C 94 % 1015,9 hPa 0,0 l/m 9,1 km/h (2 Bft) SW 221 0 min 25 W/m 13,6 C 13,1 C 17,7 km/h (3 Bft)
12.09.2018 08:48 14,6 C 94 % 1015,9 hPa 0,0 l/m 8,1 km/h (2 Bft) W-SW 237 0 min 28 W/m 13,6 C 13,6 C 14,5 km/h (3 Bft)
12.09.2018 08:51 14,6 C 94 % 1016,1 hPa 0,0 l/m 11,0 km/h (2 Bft) SW 236 0 min 33 W/m 13,6 C 12,2 C 16,1 km/h (3 Bft)
12.09.2018 08:54 14,6 C 94 % 1016,0 hPa 0,2 l/m 9,3 km/h (2 Bft) W-SW 239 0 min 51 W/m 13,6 C 13,0 C 20,9 km/h (4 Bft)
12.09.2018 08:57 14,6 C 94 % 1016,3 hPa 0,0 l/m 13,3 km/h (3 Bft) SW 232 0 min 19 W/m 13,6 C 11,3 C 22,5 km/h (4 Bft)
12.09.2018 09:00 14,6 C 94 % 1016,2 hPa 0,0 l/m 11,5 km/h (2 Bft) SW 217 0 min 44 W/m 13,6 C 12,0 C 20,9 km/h (4 Bft)
12.09.2018 09:03 14,6 C 95 % 1015,9 hPa 0,0 l/m 10,7 km/h (2 Bft) SW 234 0 min 63 W/m 13,8 C 12,4 C 20,9 km/h (4 Bft)
12.09.2018 09:06 14,6 C 95 % 1015,9 hPa 0,0 l/m 10,0 km/h (2 Bft) SW 227 0 min 88 W/m 13,8 C 12,7 C 16,1 km/h (3 Bft)
12.09.2018 09:09 14,7 C 95 % 1016,0 hPa 0,0 l/m 9,7 km/h (2 Bft) S-SW 199 0 min 79 W/m 13,9 C 12,9 C 20,9 km/h (4 Bft)
12.09.2018 09:12 14,6 C 95 % 1016,1 hPa 0,0 l/m 11,3 km/h (2 Bft) SW 214 0 min 67 W/m 13,8 C 12,1 C 17,7 km/h (3 Bft)
12.09.2018 09:15 14,6 C 94 % 1016,1 hPa 0,0 l/m 12,0 km/h (2 Bft) SW 216 0 min 53 W/m 13,6 C 11,8 C 22,5 km/h (4 Bft)
12.09.2018 09:18 14,6 C 95 % 1016,2 hPa 0,0 l/m 10,2 km/h (2 Bft) SW 222 0 min 54 W/m 13,8 C 12,6 C 17,7 km/h (3 Bft)
12.09.2018 09:21 14,6 C 95 % 1016,2 hPa 0,0 l/m 9,4 km/h (2 Bft) SW 229 0 min 44 W/m 13,8 C 13,0 C 17,7 km/h (3 Bft)
12.09.2018 09:24 14,6 C 95 % 1016,3 hPa 0,0 l/m 8,3 km/h (2 Bft) W 266 0 min 26 W/m 13,8 C 13,5 C 12,9 km/h (3 Bft)
12.09.2018 09:27 14,6 C 95 % 1016,4 hPa 0,0 l/m 6,3 km/h (2 Bft) SW 219 0 min 18 W/m 13,8 C 14,6 C 12,9 km/h (3 Bft)
12.09.2018 09:30 14,7 C 95 % 1016,4 hPa 0,0 l/m 6,5 km/h (2 Bft) W-SW 238 0 min 44 W/m 13,9 C 14,7 C 11,3 km/h (2 Bft)
12.09.2018 09:33 14,7 C 95 % 1016,6 hPa 0,0 l/m 11,3 km/h (2 Bft) W 270 0 min 18 W/m 13,9 C 12,2 C 24,1 km/h (4 Bft)
12.09.2018 09:36 14,6 C 94 % 1016,6 hPa 0,2 l/m 8,4 km/h (2 Bft) SW 234 0 min 26 W/m 13,6 C 13,5 C 19,3 km/h (3 Bft)
12.09.2018 09:39 14,4 C 94 % 1016,6 hPa 0,0 l/m 7,9 km/h (2 Bft) W-NW 295 0 min 44 W/m 13,4 C 13,5 C 17,7 km/h (3 Bft)
12.09.2018 09:42 14,2 C 94 % 1016,7 hPa 0,0 l/m 12,6 km/h (3 Bft) W 261 0 min 39 W/m 13,2 C 11,1 C 20,9 km/h (4 Bft)
12.09.2018 09:45 14,0 C 94 % 1016,7 hPa 0,0 l/m 8,9 km/h (2 Bft) W-SW 239 0 min 35 W/m 13,0 C 12,6 C 16,1 km/h (3 Bft)
12.09.2018 09:48 13,9 C 94 % 1016,9 hPa 0,0 l/m 9,6 km/h (2 Bft) W 259 0 min 26 W/m 12,9 C 12,1 C 16,1 km/h (3 Bft)
12.09.2018 09:51 13,8 C 94 % 1016,8 hPa 0,0 l/m 7,6 km/h (2 Bft) W-NW 286 0 min 32 W/m 12,9 C 13,1 C 14,5 km/h (3 Bft)
12.09.2018 09:54 13,8 C 94 % 1016,8 hPa 0,0 l/m 3,8 km/h (1 Bft) W 277 0 min 37 W/m 12,9 C 13,8 C 6,4 km/h (2 Bft)
12.09.2018 09:57 13,7 C 94 % 1016,8 hPa 0,0 l/m 3,9 km/h (1 Bft) W-SW 258 0 min 42 W/m 12,8 C 13,7 C 6,4 km/h (2 Bft)
12.09.2018 10:00 13,7 C 95 % 1016,7 hPa 0,0 l/m 3,2 km/h (1 Bft) W-SW 258 0 min 53 W/m 12,9 C 13,7 C 4,8 km/h (1 Bft)
12.09.2018 10:03 13,7 C 95 % 1016,7 hPa 0,0 l/m 3,0 km/h (1 Bft) W-SW 253 0 min 56 W/m 12,9 C 13,7 C 6,4 km/h (2 Bft)
12.09.2018 10:06 13,7 C 95 % 1016,9 hPa 0,0 l/m 3,5 km/h (1 Bft) W-SW 253 0 min 58 W/m 12,9 C 13,7 C 6,4 km/h (2 Bft)
12.09.2018 10:09 13,8 C 95 % 1017,0 hPa 0,0 l/m 3,9 km/h (1 Bft) W-SW 253 0 min 58 W/m 13,0 C 13,8 C 6,4 km/h (2 Bft)
12.09.2018 10:12 13,8 C 95 % 1017,0 hPa 0,0 l/m 3,6 km/h (1 Bft) W-SW 253 0 min 67 W/m 13,0 C 13,8 C 4,8 km/h (1 Bft)
12.09.2018 10:15 13,8 C 95 % 1017,0 hPa 0,0 l/m 4,3 km/h (1 Bft) W-SW 251 0 min 67 W/m 13,0 C 13,8 C 6,4 km/h (2 Bft)
12.09.2018 10:18 13,9 C 95 % 1017,1 hPa 0,0 l/m 4,7 km/h (1 Bft) W-SW 247 0 min 79 W/m 13,1 C 13,9 C 6,4 km/h (2 Bft)
12.09.2018 10:21 14,0 C 95 % 1017,3 hPa 0,0 l/m 4,1 km/h (1 Bft) W-SW 254 0 min 70 W/m 13,2 C 14,0 C 6,4 km/h (2 Bft)
12.09.2018 10:24 14,1 C 95 % 1017,2 hPa 0,0 l/m 3,6 km/h (1 Bft) W 261 0 min 70 W/m 13,3 C 14,1 C 6,4 km/h (2 Bft)
12.09.2018 10:27 14,2 C 95 % 1017,4 hPa 0,0 l/m 5,5 km/h (2 Bft) W-NW 282 0 min 51 W/m 13,4 C 14,2 C 12,9 km/h (3 Bft)
12.09.2018 10:30 14,2 C 95 % 1017,3 hPa 0,0 l/m 10,5 km/h (2 Bft) N-NW 341 0 min 72 W/m 13,4 C 12,0 C 17,7 km/h (3 Bft)
12.09.2018 10:33 14,2 C 95 % 1017,3 hPa 0,0 l/m 7,7 km/h (2 Bft) W 268 0 min 97 W/m 13,4 C 13,4 C 16,1 km/h (3 Bft)
12.09.2018 10:36 14,1 C 95 % 1017,4 hPa 0,0 l/m 5,2 km/h (1 Bft) W-NW 283 0 min 93 W/m 13,3 C 14,1 C 16,1 km/h (3 Bft)
12.09.2018 10:39 14,2 C 95 % 1017,4 hPa 0,0 l/m 6,5 km/h (2 Bft) W-NW 288 0 min 86 W/m 13,4 C 14,2 C 16,1 km/h (3 Bft)
12.09.2018 10:42 14,2 C 95 % 1017,5 hPa 0,0 l/m 6,1 km/h (2 Bft) W 275 0 min 83 W/m 13,4 C 14,2 C 14,5 km/h (3 Bft)
12.09.2018 10:45 14,3 C 95 % 1017,4 hPa 0,0 l/m 8,2 km/h (2 Bft) NW 322 0 min 125 W/m 13,5 C 13,3 C 16,1 km/h (3 Bft)
12.09.2018 10:48 14,4 C 95 % 1017,5 hPa 0,0 l/m 7,7 km/h (2 Bft) W-NW 290 0 min 125 W/m 13,6 C 13,6 C 19,3 km/h (3 Bft)
12.09.2018 10:51 14,4 C 94 % 1017,4 hPa 0,0 l/m 8,0 km/h (2 Bft) NW 306 0 min 123 W/m 13,4 C 13,5 C 17,7 km/h (3 Bft)
12.09.2018 10:54 14,4 C 94 % 1017,5 hPa 0,0 l/m 8,4 km/h (2 Bft) W 262 0 min 121 W/m 13,4 C 13,3 C 17,7 km/h (3 Bft)
12.09.2018 10:57 14,3 C 94 % 1017,5 hPa 0,0 l/m 7,5 km/h (2 Bft) W-NW 296 0 min 144 W/m 13,3 C 13,7 C 17,7 km/h (3 Bft)
12.09.2018 11:00 14,3 C 94 % 1017,5 hPa 0,2 l/m 7,8 km/h (2 Bft) NW 322 0 min 148 W/m 13,3 C 13,5 C 14,5 km/h (3 Bft)
12.09.2018 11:03 14,4 C 94 % 1017,6 hPa 0,0 l/m 6,9 km/h (2 Bft) W-NW 285 0 min 116 W/m 13,4 C 14,1 C 16,1 km/h (3 Bft)
12.09.2018 11:06 14,5 C 94 % 1017,6 hPa 0,0 l/m 6,9 km/h (2 Bft) W-NW 299 0 min 116 W/m 13,5 C 14,2 C 16,1 km/h (3 Bft)
12.09.2018 11:09 14,6 C 94 % 1017,5 hPa 0,0 l/m 6,5 km/h (2 Bft) W-NW 294 0 min 134 W/m 13,6 C 14,6 C 19,3 km/h (3 Bft)
12.09.2018 11:12 14,6 C 94 % 1017,6 hPa 0,0 l/m 8,0 km/h (2 Bft) W-NW 303 0 min 111 W/m 13,6 C 13,7 C 14,5 km/h (3 Bft)
12.09.2018 11:15 14,6 C 94 % 1017,5 hPa 0,0 l/m 6,5 km/h (2 Bft) N-NW 332 0 min 123 W/m 13,6 C 14,6 C 16,1 km/h (3 Bft)
12.09.2018 11:18 14,6 C 94 % 1017,6 hPa 0,0 l/m 7,7 km/h (2 Bft) W 267 0 min 100 W/m 13,6 C 13,8 C 20,9 km/h (4 Bft)
12.09.2018 11:21 14,6 C 94 % 1017,7 hPa 0,0 l/m 8,0 km/h (2 Bft) W-NW 294 0 min 111 W/m 13,6 C 13,7 C 16,1 km/h (3 Bft)
12.09.2018 11:24 14,6 C 94 % 1017,8 hPa 0,0 l/m 6,9 km/h (2 Bft) W 280 0 min 107 W/m 13,6 C 14,3 C 14,5 km/h (3 Bft)
12.09.2018 11:27 14,7 C 94 % 1017,8 hPa 0,0 l/m 7,0 km/h (2 Bft) W 263 0 min 98 W/m 13,7 C 14,4 C 14,5 km/h (3 Bft)
12.09.2018 11:30 14,6 C 94 % 1017,8 hPa 0,0 l/m 4,8 km/h (1 Bft) NW 311 0 min 104 W/m 13,6 C 14,6 C 12,9 km/h (3 Bft)
12.09.2018 11:33 14,6 C 94 % 1017,7 hPa 0,0 l/m 6,8 km/h (2 Bft) W-NW 293 0 min 86 W/m 13,6 C 14,4 C 16,1 km/h (3 Bft)
12.09.2018 11:36 14,6 C 94 % 1017,8 hPa 0,0 l/m 6,7 km/h (2 Bft) W-NW 292 0 min 120 W/m 13,6 C 14,4 C 16,1 km/h (3 Bft)
12.09.2018 11:39 14,7 C 94 % 1017,8 hPa 0,0 l/m 6,4 km/h (2 Bft) W 275 0 min 102 W/m 13,7 C 14,7 C 12,9 km/h (3 Bft)
12.09.2018 11:42 14,7 C 94 % 1017,9 hPa 0,0 l/m 5,8 km/h (2 Bft) NW 317 0 min 70 W/m 13,7 C 14,7 C 12,9 km/h (3 Bft)
12.09.2018 11:45 14,7 C 94 % 1017,8 hPa 0,0 l/m 4,4 km/h (1 Bft) NW 319 0 min 156 W/m 13,7 C 14,7 C 11,3 km/h (2 Bft)
12.09.2018 11:48 14,7 C 94 % 1017,8 hPa 0,0 l/m 3,8 km/h (1 Bft) W 277 0 min 197 W/m 13,7 C 14,7 C 12,9 km/h (3 Bft)
12.09.2018 11:51 14,6 C 94 % 1017,8 hPa 0,0 l/m 6,9 km/h (2 Bft) W 276 0 min 162 W/m 13,6 C 14,3 C 17,7 km/h (3 Bft)
12.09.2018 11:54 14,7 C 95 % 1017,9 hPa 0,0 l/m 10,1 km/h (2 Bft) NW 315 0 min 186 W/m 13,9 C 12,7 C 17,7 km/h (3 Bft)
12.09.2018 11:57 14,7 C 95 % 1017,8 hPa 0,0 l/m 7,8 km/h (2 Bft) W 279 0 min 244 W/m 13,9 C 13,9 C 16,1 km/h (3 Bft)
12.09.2018 12:00 14,7 C 95 % 1017,9 hPa 0,0 l/m 8,7 km/h (2 Bft) N 355 0 min 190 W/m 13,9 C 13,4 C 16,1 km/h (3 Bft)
12.09.2018 12:03 14,6 C 94 % 1017,9 hPa 0,0 l/m 8,1 km/h (2 Bft) NW 305 0 min 183 W/m 13,6 C 13,6 C 20,9 km/h (4 Bft)
12.09.2018 12:06 14,6 C 95 % 1017,9 hPa 0,0 l/m 4,6 km/h (1 Bft) N-NW 336 0 min 185 W/m 13,8 C 14,6 C 9,7 km/h (2 Bft)
12.09.2018 12:09 14,6 C 94 % 1017,8 hPa 0,0 l/m 7,3 km/h (2 Bft) W-NW 294 0 min 190 W/m 13,6 C 14,1 C 14,5 km/h (3 Bft)
12.09.2018 12:12 14,6 C 94 % 1017,8 hPa 0,0 l/m 4,6 km/h (1 Bft) W-NW 287 0 min 172 W/m 13,6 C 14,6 C 12,9 km/h (3 Bft)
12.09.2018 12:15 14,7 C 95 % 1017,9 hPa 0,0 l/m 3,4 km/h (1 Bft) W-NW 289 0 min 153 W/m 13,9 C 14,7 C 6,4 km/h (2 Bft)
12.09.2018 12:18 14,7 C 95 % 1018,0 hPa 0,0 l/m 6,1 km/h (2 Bft) NW 306 0 min 79 W/m 13,9 C 14,7 C 12,9 km/h (3 Bft)
12.09.2018 12:21 14,6 C 94 % 1018,0 hPa 0,0 l/m 7,9 km/h (2 Bft) NW 313 0 min 62 W/m 13,6 C 13,7 C 20,9 km/h (4 Bft)
12.09.2018 12:24 14,6 C 94 % 1018,0 hPa 0,0 l/m 11,0 km/h (2 Bft) W-NW 297 0 min 135 W/m 13,6 C 12,2 C 24,1 km/h (4 Bft)
12.09.2018 12:27 14,5 C 94 % 1018,0 hPa 0,0 l/m 9,3 km/h (2 Bft) W-NW 296 0 min 169 W/m 13,5 C 12,9 C 19,3 km/h (3 Bft)
12.09.2018 12:30 14,4 C 94 % 1018,1 hPa 0,0 l/m 6,6 km/h (2 Bft) W 276 0 min 128 W/m 13,4 C 14,3 C 16,1 km/h (3 Bft)
12.09.2018 12:33 14,3 C 94 % 1018,1 hPa 0,0 l/m 6,9 km/h (2 Bft) NW 317 0 min 98 W/m 13,3 C 14,0 C 16,1 km/h (3 Bft)
12.09.2018 12:36 14,4 C 94 % 1018,1 hPa 0,0 l/m 10,7 km/h (2 Bft) NW 307 0 min 102 W/m 13,4 C 12,1 C 20,9 km/h (4 Bft)
12.09.2018 12:39 14,3 C 95 % 1018,1 hPa 0,0 l/m 7,0 km/h (2 Bft) NW 309 0 min 79 W/m 13,5 C 13,9 C 14,5 km/h (3 Bft)
12.09.2018 12:42 14,4 C 95 % 1018,2 hPa 0,0 l/m 6,5 km/h (2 Bft) NW 311 0 min 91 W/m 13,6 C 14,4 C 16,1 km/h (3 Bft)
12.09.2018 12:45 14,3 C 94 % 1018,2 hPa 0,0 l/m 8,4 km/h (2 Bft) W-SW 250 0 min 65 W/m 13,3 C 13,1 C 19,3 km/h (3 Bft)
12.09.2018 12:48 14,3 C 95 % 1018,3 hPa 0,2 l/m 8,9 km/h (2 Bft) N-NW 334 0 min 79 W/m 13,5 C 12,9 C 17,7 km/h (3 Bft)
12.09.2018 12:51 14,3 C 95 % 1018,3 hPa 0,0 l/m 6,0 km/h (2 Bft) N-NW 336 0 min 118 W/m 13,5 C 14,3 C 12,9 km/h (3 Bft)
12.09.2018 12:54 14,3 C 95 % 1018,3 hPa 0,0 l/m 9,1 km/h (2 Bft) NW 317 0 min 88 W/m 13,5 C 12,8 C 16,1 km/h (3 Bft)
12.09.2018 12:57 14,2 C 95 % 1018,2 hPa 0,0 l/m 7,5 km/h (2 Bft) NW 313 0 min 130 W/m 13,4 C 13,5 C 16,1 km/h (3 Bft)
12.09.2018 13:00 14,2 C 95 % 1018,2 hPa 0,0 l/m 4,9 km/h (1 Bft) NW 325 0 min 135 W/m 13,4 C 14,2 C 12,9 km/h (3 Bft)
12.09.2018 13:03 14,2 C 95 % 1018,3 hPa 0,0 l/m 6,4 km/h (2 Bft) NW 323 0 min 142 W/m 13,4 C 14,2 C 14,5 km/h (3 Bft)
12.09.2018 13:06 14,3 C 95 % 1018,4 hPa 0,0 l/m 7,3 km/h (2 Bft) N-NW 333 0 min 120 W/m 13,5 C 13,8 C 12,9 km/h (3 Bft)
12.09.2018 13:09 14,3 C 95 % 1018,5 hPa 0,0 l/m 10,5 km/h (2 Bft) NW 325 0 min 130 W/m 13,5 C 12,1 C 17,7 km/h (3 Bft)
12.09.2018 13:12 14,2 C 95 % 1018,5 hPa 0,0 l/m 7,9 km/h (2 Bft) N-NW 327 0 min 111 W/m 13,4 C 13,3 C 16,1 km/h (3 Bft)
12.09.2018 13:15 14,2 C 95 % 1018,6 hPa 0,0 l/m 9,6 km/h (2 Bft) NW 316 0 min 102 W/m 13,4 C 12,4 C 19,3 km/h (3 Bft)
12.09.2018 13:18 14,3 C 95 % 1018,7 hPa 0,0 l/m 8,2 km/h (2 Bft) W-NW 295 0 min 120 W/m 13,5 C 13,3 C 19,3 km/h (3 Bft)
12.09.2018 13:21 14,2 C 95 % 1018,7 hPa 0,0 l/m 7,8 km/h (2 Bft) NW 318 0 min 90 W/m 13,4 C 13,4 C 16,1 km/h (3 Bft)
12.09.2018 13:24 14,1 C 95 % 1018,7 hPa 0,0 l/m 9,9 km/h (2 Bft) NW 321 0 min 114 W/m 13,3 C 12,2 C 19,3 km/h (3 Bft)
12.09.2018 13:27 14,1 C 95 % 1018,9 hPa 0,0 l/m 9,2 km/h (2 Bft) N-NW 337 0 min 105 W/m 13,3 C 12,5 C 16,1 km/h (3 Bft)
12.09.2018 13:30 14,1 C 95 % 1018,8 hPa 0,0 l/m 9,2 km/h (2 Bft) N 355 0 min 76 W/m 13,3 C 12,5 C 20,9 km/h (4 Bft)
12.09.2018 13:33 14,1 C 94 % 1018,8 hPa 0,0 l/m 6,8 km/h (2 Bft) NW 314 0 min 100 W/m 13,1 C 13,9 C 16,1 km/h (3 Bft)
12.09.2018 13:36 14,1 C 94 % 1018,8 hPa 0,0 l/m 6,2 km/h (2 Bft) W 279 0 min 127 W/m 13,1 C 14,1 C 12,9 km/h (3 Bft)
12.09.2018 13:39 14,1 C 94 % 1018,9 hPa 0,0 l/m 7,6 km/h (2 Bft) W-NW 283 0 min 132 W/m 13,1 C 13,4 C 16,1 km/h (3 Bft)
12.09.2018 13:42 14,2 C 95 % 1018,9 hPa 0,0 l/m 7,5 km/h (2 Bft) NW 317 0 min 178 W/m 13,4 C 13,5 C 16,1 km/h (3 Bft)
12.09.2018 13:45 14,3 C 95 % 1018,9 hPa 0,0 l/m 6,7 km/h (2 Bft) W-NW 293 0 min 218 W/m 13,5 C 14,1 C 14,5 km/h (3 Bft)
12.09.2018 13:48 14,4 C 94 % 1018,9 hPa 0,0 l/m 7,3 km/h (2 Bft) N-NW 332 0 min 221 W/m 13,4 C 13,9 C 19,3 km/h (3 Bft)
12.09.2018 13:51 14,4 C 94 % 1018,8 hPa 0,0 l/m 7,1 km/h (2 Bft) N-NW 347 0 min 146 W/m 13,4 C 14,0 C 12,9 km/h (3 Bft)
12.09.2018 13:54 14,5 C 94 % 1018,8 hPa 0,0 l/m 6,9 km/h (2 Bft) N-NW 335 0 min 144 W/m 13,5 C 14,2 C 14,5 km/h (3 Bft)
12.09.2018 13:57 14,6 C 93 % 1018,9 hPa 0,0 l/m 6,3 km/h (2 Bft) W 273 0 min 128 W/m 13,5 C 14,6 C 14,5 km/h (3 Bft)
12.09.2018 14:00 14,7 C 93 % 1018,9 hPa 0,0 l/m 6,0 km/h (2 Bft) NW 309 0 min 139 W/m 13,6 C 14,7 C 12,9 km/h (3 Bft)
12.09.2018 14:03 14,7 C 93 % 1018,9 hPa 0,0 l/m 4,3 km/h (1 Bft) SW 233 0 min 207 W/m 13,6 C 14,7 C 9,7 km/h (2 Bft)
12.09.2018 14:06 14,8 C 93 % 1018,9 hPa 0,0 l/m 7,2 km/h (2 Bft) W 265 0 min 192 W/m 13,7 C 14,3 C 12,9 km/h (3 Bft)
12.09.2018 14:09 14,7 C 93 % 1018,9 hPa 0,0 l/m 4,5 km/h (1 Bft) W 271 0 min 156 W/m 13,6 C 14,7 C 11,3 km/h (2 Bft)
12.09.2018 14:12 14,8 C 92 % 1018,9 hPa 0,0 l/m 4,6 km/h (1 Bft) W 264 0 min 186 W/m 13,5 C 14,8 C 9,7 km/h (2 Bft)
12.09.2018 14:15 14,8 C 92 % 1018,9 hPa 0,0 l/m 3,8 km/h (1 Bft) NW 315 0 min 158 W/m 13,5 C 14,8 C 9,7 km/h (2 Bft)
12.09.2018 14:18 14,8 C 92 % 1018,9 hPa 0,0 l/m 2,2 km/h (1 Bft) W 263 0 min 135 W/m 13,5 C 14,8 C 6,4 km/h (2 Bft)
12.09.2018 14:21 14,8 C 91 % 1019,0 hPa 0,0 l/m 4,9 km/h (1 Bft) W-NW 286 0 min 134 W/m 13,3 C 14,8 C 12,9 km/h (3 Bft)
12.09.2018 14:24 14,8 C 91 % 1019,0 hPa 0,0 l/m 4,4 km/h (1 Bft) W-NW 292 0 min 123 W/m 13,3 C 14,8 C 11,3 km/h (2 Bft)
12.09.2018 14:27 14,9 C 90 % 1019,1 hPa 0,0 l/m 4,5 km/h (1 Bft) W-NW 294 0 min 135 W/m 13,3 C 14,9 C 14,5 km/h (3 Bft)
12.09.2018 14:30 14,9 C 90 % 1019,1 hPa 0,0 l/m 5,0 km/h (1 Bft) W-NW 287 0 min 125 W/m 13,3 C 14,9 C 9,7 km/h (2 Bft)
12.09.2018 14:33 15,0 C 90 % 1019,1 hPa 0,0 l/m 4,2 km/h (1 Bft) NW 304 0 min 174 W/m 13,4 C 15,0 C 11,3 km/h (2 Bft)
12.09.2018 14:36 15,0 C 90 % 1019,0 hPa 0,0 l/m 6,8 km/h (2 Bft) NW 315 0 min 197 W/m 13,4 C 14,8 C 12,9 km/h (3 Bft)
12.09.2018 14:39 15,1 C 90 % 1019,0 hPa 0,0 l/m 5,5 km/h (2 Bft) W-SW 254 0 min 149 W/m 13,5 C 15,1 C 12,9 km/h (3 Bft)
12.09.2018 14:42 15,2 C 89 % 1018,9 hPa 0,0 l/m 5,4 km/h (2 Bft) W 265 0 min 113 W/m 13,4 C 15,2 C 12,9 km/h (3 Bft)
12.09.2018 14:45 15,1 C 88 % 1019,1 hPa 0,0 l/m 7,2 km/h (2 Bft) W-NW 298 0 min 90 W/m 13,1 C 14,6 C 16,1 km/h (3 Bft)
12.09.2018 14:48 15,1 C 88 % 1019,2 hPa 0,0 l/m 7,7 km/h (2 Bft) W-NW 294 0 min 88 W/m 13,1 C 14,4 C 16,1 km/h (3 Bft)
12.09.2018 14:51 15,1 C 88 % 1019,3 hPa 0,0 l/m 5,3 km/h (1 Bft) W-NW 294 0 min 65 W/m 13,1 C 15,1 C 17,7 km/h (3 Bft)
12.09.2018 14:54 15,0 C 87 % 1019,4 hPa 0,0 l/m 6,0 km/h (2 Bft) NW 313 0 min 65 W/m 12,9 C 15,0 C 14,5 km/h (3 Bft)
12.09.2018 14:57 15,0 C 87 % 1019,3 hPa 0,0 l/m 5,1 km/h (1 Bft) W 265 0 min 100 W/m 12,9 C 15,0 C 14,5 km/h (3 Bft)
12.09.2018 15:00 15,0 C 87 % 1019,3 hPa 0,0 l/m 6,8 km/h (2 Bft) W-NW 292 0 min 113 W/m 12,9 C 14,8 C 14,5 km/h (3 Bft)
12.09.2018 15:03 15,1 C 87 % 1019,3 hPa 0,0 l/m 6,6 km/h (2 Bft) W-NW 287 0 min 162 W/m 13,0 C 15,0 C 14,5 km/h (3 Bft)
12.09.2018 15:06 15,1 C 86 % 1019,4 hPa 0,0 l/m 9,9 km/h (2 Bft) W-SW 253 0 min 176 W/m 12,8 C 13,3 C 17,7 km/h (3 Bft)
12.09.2018 15:09 15,2 C 86 % 1019,4 hPa 0,0 l/m 9,7 km/h (2 Bft) NW 306 0 min 134 W/m 12,9 C 13,5 C 20,9 km/h (4 Bft)
12.09.2018 15:12 15,2 C 85 % 1019,5 hPa 0,0 l/m 8,5 km/h (2 Bft) NW 306 0 min 121 W/m 12,7 C 14,1 C 19,3 km/h (3 Bft)
12.09.2018 15:15 15,3 C 85 % 1019,4 hPa 0,0 l/m 8,8 km/h (2 Bft) W 261 0 min 125 W/m 12,8 C 14,0 C 19,3 km/h (3 Bft)
12.09.2018 15:18 15,2 C 85 % 1019,4 hPa 0,0 l/m 9,3 km/h (2 Bft) W 276 0 min 98 W/m 12,7 C 13,7 C 17,7 km/h (3 Bft)
12.09.2018 15:21 15,3 C 85 % 1019,4 hPa 0,0 l/m 4,1 km/h (1 Bft) W 273 0 min 72 W/m 12,8 C 15,3 C 14,5 km/h (3 Bft)
12.09.2018 15:24 15,3 C 85 % 1019,4 hPa 0,0 l/m 5,4 km/h (2 Bft) W 271 0 min 63 W/m 12,8 C 15,3 C 19,3 km/h (3 Bft)
12.09.2018 15:27 15,2 C 85 % 1019,5 hPa 0,0 l/m 11,0 km/h (2 Bft) W-NW 284 0 min 63 W/m 12,7 C 12,9 C 17,7 km/h (3 Bft)
12.09.2018 15:30 15,1 C 85 % 1019,5 hPa 0,0 l/m 8,8 km/h (2 Bft) W-NW 291 0 min 37 W/m 12,6 C 13,8 C 16,1 km/h (3 Bft)
12.09.2018 15:33 15,1 C 85 % 1019,5 hPa 0,0 l/m 7,6 km/h (2 Bft) W 279 0 min 53 W/m 12,6 C 14,4 C 16,1 km/h (3 Bft)
12.09.2018 15:36 15,1 C 86 % 1019,5 hPa 0,0 l/m 6,8 km/h (2 Bft) W-NW 295 0 min 76 W/m 12,8 C 14,9 C 12,9 km/h (3 Bft)
12.09.2018 15:39 14,9 C 87 % 1019,4 hPa 0,0 l/m 3,5 km/h (1 Bft) NW 321 0 min 83 W/m 12,8 C 14,9 C 6,4 km/h (2 Bft)
12.09.2018 15:42 14,9 C 88 % 1019,4 hPa 0,0 l/m 6,9 km/h (2 Bft) W 272 0 min 84 W/m 12,9 C 14,6 C 14,5 km/h (3 Bft)
12.09.2018 15:45 14,8 C 88 % 1019,4 hPa 0,0 l/m 7,5 km/h (2 Bft) NW 307 0 min 98 W/m 12,8 C 14,2 C 14,5 km/h (3 Bft)
12.09.2018 15:48 14,7 C 88 % 1019,4 hPa 0,0 l/m 6,6 km/h (2 Bft) W-SW 250 0 min 88 W/m 12,7 C 14,6 C 14,5 km/h (3 Bft)
12.09.2018 15:51 14,8 C 88 % 1019,4 hPa 0,0 l/m 5,8 km/h (2 Bft) W-NW 292 0 min 88 W/m 12,8 C 14,8 C 12,9 km/h (3 Bft)
12.09.2018 15:54 14,8 C 88 % 1019,4 hPa 0,0 l/m 6,6 km/h (2 Bft) W 259 0 min 86 W/m 12,8 C 14,7 C 14,5 km/h (3 Bft)
12.09.2018 15:57 14,9 C 88 % 1019,6 hPa 0,0 l/m 7,5 km/h (2 Bft) W 263 0 min 67 W/m 12,9 C 14,3 C 19,3 km/h (3 Bft)
12.09.2018 16:00 14,9 C 87 % 1019,5 hPa 0,0 l/m 8,5 km/h (2 Bft) W-SW 241 0 min 102 W/m 12,8 C 13,7 C 16,1 km/h (3 Bft)
12.09.2018 16:03 14,9 C 86 % 1019,4 hPa 0,0 l/m 5,5 km/h (2 Bft) W 270 0 min 125 W/m 12,6 C 14,9 C 14,5 km/h (3 Bft)
12.09.2018 16:06 15,0 C 85 % 1019,5 hPa 0,0 l/m 8,7 km/h (2 Bft) W-SW 257 0 min 141 W/m 12,5 C 13,7 C 17,7 km/h (3 Bft)
12.09.2018 16:09 15,2 C 85 % 1019,5 hPa 0,0 l/m 5,0 km/h (1 Bft) W 273 0 min 162 W/m 12,7 C 15,2 C 16,1 km/h (3 Bft)
12.09.2018 16:12 15,3 C 84 % 1019,6 hPa 0,0 l/m 8,8 km/h (2 Bft) W-NW 299 0 min 148 W/m 12,6 C 14,0 C 14,5 km/h (3 Bft)
12.09.2018 16:15 15,4 C 84 % 1019,6 hPa 0,0 l/m 7,2 km/h (2 Bft) W 279 0 min 160 W/m 12,7 C 15,0 C 16,1 km/h (3 Bft)
12.09.2018 16:18 15,5 C 83 % 1019,6 hPa 0,0 l/m 9,6 km/h (2 Bft) W-NW 282 0 min 156 W/m 12,6 C 13,8 C 17,7 km/h (3 Bft)
12.09.2018 16:21 15,6 C 83 % 1019,6 hPa 0,0 l/m 5,3 km/h (1 Bft) W 273 0 min 176 W/m 12,7 C 15,6 C 14,5 km/h (3 Bft)
12.09.2018 16:24 15,7 C 82 % 1019,7 hPa 0,0 l/m 10,2 km/h (2 Bft) W 267 0 min 179 W/m 12,6 C 13,8 C 20,9 km/h (4 Bft)
12.09.2018 16:27 15,7 C 81 % 1019,6 hPa 0,0 l/m 8,6 km/h (2 Bft) NW 310 0 min 162 W/m 12,4 C 14,5 C 17,7 km/h (3 Bft)
12.09.2018 16:30 15,8 C 81 % 1019,5 hPa 0,0 l/m 7,3 km/h (2 Bft) W-NW 283 0 min 165 W/m 12,5 C 15,3 C 17,7 km/h (3 Bft)
12.09.2018 16:33 15,8 C 80 % 1019,5 hPa 0,0 l/m 6,5 km/h (2 Bft) NW 306 0 min 153 W/m 12,4 C 15,8 C 16,1 km/h (3 Bft)
12.09.2018 16:36 15,8 C 80 % 1019,6 hPa 0,0 l/m 6,3 km/h (2 Bft) W 259 0 min 120 W/m 12,4 C 15,8 C 16,1 km/h (3 Bft)
12.09.2018 16:39 15,8 C 80 % 1019,6 hPa 0,0 l/m 7,0 km/h (2 Bft) NW 321 0 min 102 W/m 12,4 C 15,5 C 16,1 km/h (3 Bft)
12.09.2018 16:42 15,7 C 79 % 1019,6 hPa 0,0 l/m 12,0 km/h (2 Bft) W 273 0 min 97 W/m 12,1 C 13,1 C 20,9 km/h (4 Bft)
12.09.2018 16:45 15,6 C 79 % 1019,6 hPa 0,0 l/m 7,0 km/h (2 Bft) NW 319 0 min 104 W/m 12,0 C 15,3 C 17,7 km/h (3 Bft)
12.09.2018 16:48 15,6 C 79 % 1019,5 hPa 0,0 l/m 7,2 km/h (2 Bft) W-NW 296 0 min 105 W/m 12,0 C 15,2 C 16,1 km/h (3 Bft)
12.09.2018 16:51 15,6 C 79 % 1019,5 hPa 0,0 l/m 5,5 km/h (2 Bft) NW 323 0 min 107 W/m 12,0 C 15,6 C 12,9 km/h (3 Bft)
12.09.2018 16:54 15,6 C 78 % 1019,6 hPa 0,0 l/m 10,3 km/h (2 Bft) W 271 0 min 104 W/m 11,8 C 13,7 C 19,3 km/h (3 Bft)
12.09.2018 16:57 15,5 C 78 % 1019,8 hPa 0,0 l/m 6,9 km/h (2 Bft) NW 307 0 min 98 W/m 11,7 C 15,2 C 14,5 km/h (3 Bft)
12.09.2018 17:00 15,5 C 78 % 1019,7 hPa 0,0 l/m 7,4 km/h (2 Bft) NW 322 0 min 95 W/m 11,7 C 14,9 C 19,3 km/h (3 Bft)
12.09.2018 17:03 15,6 C 78 % 1019,7 hPa 0,0 l/m 3,3 km/h (1 Bft) W 274 0 min 91 W/m 11,8 C 15,6 C 9,7 km/h (2 Bft)
12.09.2018 17:06 15,6 C 79 % 1019,9 hPa 0,0 l/m 8,5 km/h (2 Bft) W-NW 292 0 min 84 W/m 12,0 C 14,5 C 19,3 km/h (3 Bft)
12.09.2018 17:09 15,6 C 78 % 1019,8 hPa 0,0 l/m 7,8 km/h (2 Bft) W-SW 243 0 min 86 W/m 11,8 C 14,8 C 14,5 km/h (3 Bft)
12.09.2018 17:12 15,5 C 77 % 1019,8 hPa 0,0 l/m 7,3 km/h (2 Bft) W-NW 283 0 min 83 W/m 11,5 C 15,0 C 16,1 km/h (3 Bft)
12.09.2018 17:15 15,5 C 78 % 1019,9 hPa 0,0 l/m 5,8 km/h (2 Bft) W 276 0 min 76 W/m 11,7 C 15,5 C 14,5 km/h (3 Bft)
12.09.2018 17:18 15,6 C 78 % 1019,8 hPa 0,2 l/m 5,7 km/h (2 Bft) W 271 0 min 77 W/m 11,8 C 15,6 C 16,1 km/h (3 Bft)
12.09.2018 17:21 15,4 C 78 % 1019,8 hPa 0,0 l/m 7,1 km/h (2 Bft) NW 308 0 min 83 W/m 11,6 C 15,0 C 14,5 km/h (3 Bft)
12.09.2018 17:24 15,4 C 77 % 1019,8 hPa 0,0 l/m 7,1 km/h (2 Bft) N-NW 329 0 min 84 W/m 11,4 C 15,0 C 16,1 km/h (3 Bft)
12.09.2018 17:27 15,4 C 78 % 1019,7 hPa 0,0 l/m 4,5 km/h (1 Bft) W 276 0 min 86 W/m 11,6 C 15,4 C 11,3 km/h (2 Bft)
12.09.2018 17:30 15,4 C 77 % 1019,8 hPa 0,0 l/m 5,4 km/h (2 Bft) NW 311 0 min 79 W/m 11,4 C 15,4 C 12,9 km/h (3 Bft)
12.09.2018 17:33 15,5 C 77 % 1019,7 hPa 0,0 l/m 6,0 km/h (2 Bft) W-NW 286 0 min 84 W/m 11,5 C 15,5 C 16,1 km/h (3 Bft)
12.09.2018 17:36 15,5 C 78 % 1019,7 hPa 0,0 l/m 6,3 km/h (2 Bft) W-NW 286 0 min 83 W/m 11,7 C 15,5 C 14,5 km/h (3 Bft)
12.09.2018 17:39 15,6 C 78 % 1019,7 hPa 0,0 l/m 8,4 km/h (2 Bft) W 269 0 min 88 W/m 11,8 C 14,5 C 16,1 km/h (3 Bft)
12.09.2018 17:42 15,6 C 78 % 1019,7 hPa 0,0 l/m 6,9 km/h (2 Bft) W-NW 296 0 min 88 W/m 11,8 C 15,3 C 14,5 km/h (3 Bft)
12.09.2018 17:45 15,6 C 79 % 1019,6 hPa 0,0 l/m 2,2 km/h (1 Bft) W-NW 296 0 min 86 W/m 12,0 C 15,6 C 6,4 km/h (2 Bft)
12.09.2018 17:48 15,6 C 79 % 1019,7 hPa 0,0 l/m 6,4 km/h (2 Bft) W-NW 282 0 min 76 W/m 12,0 C 15,6 C 17,7 km/h (3 Bft)
12.09.2018 17:51 15,6 C 78 % 1019,8 hPa 0,0 l/m 5,8 km/h (2 Bft) W 273 0 min 63 W/m 11,8 C 15,6 C 12,9 km/h (3 Bft)
12.09.2018 17:54 15,6 C 78 % 1019,8 hPa 0,0 l/m 5,5 km/h (2 Bft) W-NW 294 0 min 60 W/m 11,8 C 15,6 C 11,3 km/h (2 Bft)
12.09.2018 17:57 15,6 C 79 % 1019,7 hPa 0,0 l/m 7,4 km/h (2 Bft) W 269 0 min 56 W/m 12,0 C 15,1 C 17,7 km/h (3 Bft)
12.09.2018 18:00 15,6 C 79 % 1019,8 hPa 0,0 l/m 7,5 km/h (2 Bft) W-NW 295 0 min 56 W/m 12,0 C 15,0 C 16,1 km/h (3 Bft)
12.09.2018 18:03 15,6 C 79 % 1019,8 hPa 0,0 l/m 5,5 km/h (2 Bft) NW 304 0 min 58 W/m 12,0 C 15,6 C 12,9 km/h (3 Bft)
12.09.2018 18:06 15,6 C 78 % 1019,8 hPa 0,0 l/m 4,9 km/h (1 Bft) NW 308 0 min 60 W/m 11,8 C 15,6 C 11,3 km/h (2 Bft)
12.09.2018 18:09 15,6 C 78 % 1019,8 hPa 0,0 l/m 7,0 km/h (2 Bft) W 273 0 min 54 W/m 11,8 C 15,3 C 16,1 km/h (3 Bft)
12.09.2018 18:12 15,6 C 77 % 1019,7 hPa 0,0 l/m 6,2 km/h (2 Bft) W-NW 294 0 min 46 W/m 11,6 C 15,6 C 14,5 km/h (3 Bft)
12.09.2018 18:15 15,6 C 77 % 1019,7 hPa 0,0 l/m 5,8 km/h (2 Bft) W-NW 284 0 min 54 W/m 11,6 C 15,6 C 11,3 km/h (2 Bft)
12.09.2018 18:18 15,6 C 77 % 1019,7 hPa 0,0 l/m 3,8 km/h (1 Bft) W-SW 257 0 min 54 W/m 11,6 C 15,6 C 11,3 km/h (2 Bft)
12.09.2018 18:21 15,6 C 78 % 1019,8 hPa 0,0 l/m 4,8 km/h (1 Bft) W-NW 282 0 min 54 W/m 11,8 C 15,6 C 14,5 km/h (3 Bft)
12.09.2018 18:24 15,6 C 78 % 1019,7 hPa 0,0 l/m 5,7 km/h (2 Bft) NW 322 0 min 62 W/m 11,8 C 15,6 C 12,9 km/h (3 Bft)
12.09.2018 18:27 15,6 C 78 % 1019,7 hPa 0,0 l/m 5,5 km/h (2 Bft) W 267 0 min 76 W/m 11,8 C 15,6 C 11,3 km/h (2 Bft)
12.09.2018 18:30 15,6 C 78 % 1019,8 hPa 0,0 l/m 5,2 km/h (1 Bft) W-NW 283 0 min 70 W/m 11,8 C 15,6 C 12,9 km/h (3 Bft)
12.09.2018 18:33 15,7 C 79 % 1019,8 hPa 0,0 l/m 4,8 km/h (1 Bft) W 265 0 min 62 W/m 12,1 C 15,7 C 14,5 km/h (3 Bft)
12.09.2018 18:36 15,7 C 79 % 1019,8 hPa 0,0 l/m 4,9 km/h (1 Bft) W 267 0 min 54 W/m 12,1 C 15,7 C 12,9 km/h (3 Bft)
12.09.2018 18:39 15,7 C 79 % 1019,7 hPa 0,0 l/m 4,4 km/h (1 Bft) W-SW 258 0 min 46 W/m 12,1 C 15,7 C 12,9 km/h (3 Bft)
12.09.2018 18:42 15,7 C 79 % 1019,9 hPa 0,0 l/m 6,3 km/h (2 Bft) W-NW 285 0 min 49 W/m 12,1 C 15,7 C 14,5 km/h (3 Bft)
12.09.2018 18:45 15,7 C 79 % 1019,8 hPa 0,0 l/m 7,7 km/h (2 Bft) W 261 0 min 58 W/m 12,1 C 15,0 C 12,9 km/h (3 Bft)
12.09.2018 18:48 15,7 C 79 % 1019,8 hPa 0,0 l/m 7,1 km/h (2 Bft) W-SW 247 0 min 67 W/m 12,1 C 15,3 C 12,9 km/h (3 Bft)
12.09.2018 18:51 15,7 C 79 % 1019,8 hPa 0,0 l/m 7,9 km/h (2 Bft) W 272 0 min 49 W/m 12,1 C 14,9 C 14,5 km/h (3 Bft)
12.09.2018 18:54 15,7 C 79 % 1019,8 hPa 0,0 l/m 6,3 km/h (2 Bft) W 262 0 min 37 W/m 12,1 C 15,7 C 14,5 km/h (3 Bft)
12.09.2018 18:57 15,7 C 79 % 1019,7 hPa 0,0 l/m 2,8 km/h (1 Bft) W 265 0 min 32 W/m 12,1 C 15,7 C 6,4 km/h (2 Bft)
12.09.2018 19:00 15,7 C 79 % 1019,7 hPa 0,0 l/m 6,8 km/h (2 Bft) W-SW 252 0 min 32 W/m 12,1 C 15,5 C 14,5 km/h (3 Bft)
12.09.2018 19:03 15,6 C 79 % 1019,6 hPa 0,0 l/m 6,5 km/h (2 Bft) W 273 0 min 30 W/m 12,0 C 15,6 C 12,9 km/h (3 Bft)
12.09.2018 19:06 15,6 C 79 % 1019,8 hPa 0,0 l/m 4,7 km/h (1 Bft) N-NW 335 0 min 26 W/m 12,0 C 15,6 C 9,7 km/h (2 Bft)
12.09.2018 19:09 15,6 C 80 % 1019,9 hPa 0,0 l/m 7,1 km/h (2 Bft) W 261 0 min 25 W/m 12,2 C 15,2 C 16,1 km/h (3 Bft)
12.09.2018 19:12 15,6 C 80 % 1019,9 hPa 0,0 l/m 6,3 km/h (2 Bft) W 278 0 min 23 W/m 12,2 C 15,6 C 12,9 km/h (3 Bft)
12.09.2018 19:15 15,6 C 79 % 1019,8 hPa 0,0 l/m 7,6 km/h (2 Bft) W 275 0 min 18 W/m 12,0 C 14,9 C 16,1 km/h (3 Bft)
12.09.2018 19:18 15,6 C 79 % 1019,8 hPa 0,0 l/m 8,0 km/h (2 Bft) W 269 0 min 14 W/m 12,0 C 14,7 C 14,5 km/h (3 Bft)
12.09.2018 19:21 15,6 C 79 % 1019,9 hPa 0,0 l/m 7,3 km/h (2 Bft) W 262 0 min 11 W/m 12,0 C 15,1 C 12,9 km/h (3 Bft)
12.09.2018 19:24 15,6 C 79 % 1019,9 hPa 0,0 l/m 5,4 km/h (2 Bft) W-NW 288 0 min 9 W/m 12,0 C 15,6 C 16,1 km/h (3 Bft)
12.09.2018 19:27 15,6 C 79 % 1019,9 hPa 0,0 l/m 10,2 km/h (2 Bft) W-NW 283 0 min 9 W/m 12,0 C 13,7 C 17,7 km/h (3 Bft)
12.09.2018 19:30 15,5 C 79 % 1019,9 hPa 0,0 l/m 7,1 km/h (2 Bft) W-NW 301 0 min 7 W/m 11,9 C 15,1 C 14,5 km/h (3 Bft)
12.09.2018 19:33 15,6 C 79 % 1019,8 hPa 0,0 l/m 5,3 km/h (1 Bft) W-NW 284 0 min 7 W/m 12,0 C 15,6 C 14,5 km/h (3 Bft)
12.09.2018 19:36 15,6 C 79 % 1019,7 hPa 0,0 l/m 6,1 km/h (2 Bft) W 269 0 min 7 W/m 12,0 C 15,6 C 11,3 km/h (2 Bft)
12.09.2018 19:39 15,6 C 80 % 1019,8 hPa 0,0 l/m 9,0 km/h (2 Bft) W 262 0 min 5 W/m 12,2 C 14,2 C 16,1 km/h (3 Bft)
12.09.2018 19:42 15,6 C 80 % 1019,8 hPa 0,0 l/m 9,4 km/h (2 Bft) W 271 0 min 0 W/m 12,2 C 14,1 C 16,1 km/h (3 Bft)
12.09.2018 19:45 15,6 C 80 % 1019,8 hPa 0,0 l/m 5,1 km/h (1 Bft) W-NW 294 0 min 0 W/m 12,2 C 15,6 C 14,5 km/h (3 Bft)
12.09.2018 19:48 15,5 C 80 % 1019,9 hPa 0,0 l/m 7,4 km/h (2 Bft) W-NW 284 0 min 0 W/m 12,1 C 14,9 C 16,1 km/h (3 Bft)
12.09.2018 19:51 15,5 C 80 % 1019,9 hPa 0,0 l/m 7,3 km/h (2 Bft) W-SW 256 0 min 0 W/m 12,1 C 15,0 C 12,9 km/h (3 Bft)
12.09.2018 19:54 15,5 C 80 % 1019,9 hPa 0,0 l/m 5,9 km/h (2 Bft) W-NW 302 0 min 5 W/m 12,1 C 15,5 C 11,3 km/h (2 Bft)
12.09.2018 19:57 15,5 C 80 % 1019,9 hPa 0,0 l/m 4,9 km/h (1 Bft) W-NW 301 0 min 5 W/m 12,1 C 15,5 C 9,7 km/h (2 Bft)
12.09.2018 20:00 15,4 C 80 % 1019,9 hPa 0,0 l/m 6,4 km/h (2 Bft) W-NW 282 0 min 0 W/m 12,0 C 15,4 C 12,9 km/h (3 Bft)
12.09.2018 20:03 15,4 C 80 % 1020,0 hPa 0,0 l/m 5,3 km/h (1 Bft) W 273 0 min 0 W/m 12,0 C 15,4 C 11,3 km/h (2 Bft)
12.09.2018 20:06 15,4 C 81 % 1020,0 hPa 0,0 l/m 7,1 km/h (2 Bft) W-NW 288 0 min 0 W/m 12,2 C 15,0 C 14,5 km/h (3 Bft)
12.09.2018 20:09 15,4 C 81 % 1019,9 hPa 0,0 l/m 5,9 km/h (2 Bft) W 279 0 min 0 W/m 12,2 C 15,4 C 12,9 km/h (3 Bft)
12.09.2018 20:12 15,4 C 81 % 1019,9 hPa 0,0 l/m 5,9 km/h (2 Bft) W-NW 286 0 min 0 W/m 12,2 C 15,4 C 12,9 km/h (3 Bft)
12.09.2018 20:15 15,4 C 81 % 1020,0 hPa 0,0 l/m 4,2 km/h (1 Bft) W 281 0 min 0 W/m 12,2 C 15,4 C 11,3 km/h (2 Bft)
12.09.2018 20:18 15,4 C 80 % 1020,0 hPa 0,0 l/m 5,5 km/h (2 Bft) SW 228 0 min 0 W/m 12,0 C 15,4 C 11,3 km/h (2 Bft)
12.09.2018 20:21 15,3 C 80 % 1020,0 hPa 0,0 l/m 5,8 km/h (2 Bft) W 274 0 min 0 W/m 11,9 C 15,3 C 11,3 km/h (2 Bft)
12.09.2018 20:24 15,3 C 80 % 1020,0 hPa 0,0 l/m 5,2 km/h (1 Bft) W 264 0 min 0 W/m 11,9 C 15,3 C 11,3 km/h (2 Bft)
12.09.2018 20:27 15,3 C 80 % 1020,1 hPa 0,0 l/m 5,8 km/h (2 Bft) W 273 0 min 0 W/m 11,9 C 15,3 C 12,9 km/h (3 Bft)
12.09.2018 20:30 15,3 C 80 % 1020,1 hPa 0,0 l/m 4,9 km/h (1 Bft) W 275 0 min 0 W/m 11,9 C 15,3 C 9,7 km/h (2 Bft)
12.09.2018 20:33 15,3 C 80 % 1020,2 hPa 0,0 l/m 4,1 km/h (1 Bft) W-NW 292 0 min 0 W/m 11,9 C 15,3 C 9,7 km/h (2 Bft)
12.09.2018 20:36 15,3 C 81 % 1020,2 hPa 0,0 l/m 6,2 km/h (2 Bft) W 267 0 min 0 W/m 12,1 C 15,3 C 12,9 km/h (3 Bft)
12.09.2018 20:39 15,3 C 81 % 1020,2 hPa 0,0 l/m 7,2 km/h (2 Bft) W 271 0 min 0 W/m 12,1 C 14,9 C 12,9 km/h (3 Bft)
12.09.2018 20:42 15,2 C 81 % 1020,3 hPa 0,0 l/m 4,8 km/h (1 Bft) W-SW 251 0 min 0 W/m 12,0 C 15,2 C 11,3 km/h (2 Bft)
12.09.2018 20:45 15,2 C 81 % 1020,3 hPa 0,0 l/m 7,0 km/h (2 Bft) W-SW 256 0 min 0 W/m 12,0 C 14,9 C 14,5 km/h (3 Bft)
12.09.2018 20:48 15,2 C 81 % 1020,4 hPa 0,0 l/m 3,8 km/h (1 Bft) W 269 0 min 0 W/m 12,0 C 15,2 C 14,5 km/h (3 Bft)
12.09.2018 20:51 15,2 C 81 % 1020,4 hPa 0,0 l/m 5,3 km/h (1 Bft) W-NW 285 0 min 0 W/m 12,0 C 15,2 C 12,9 km/h (3 Bft)
12.09.2018 20:54 15,2 C 81 % 1020,4 hPa 0,0 l/m 5,8 km/h (2 Bft) W 260 0 min 0 W/m 12,0 C 15,2 C 14,5 km/h (3 Bft)
12.09.2018 20:57 15,2 C 81 % 1020,3 hPa 0,0 l/m 4,9 km/h (1 Bft) W 280 0 min 0 W/m 12,0 C 15,2 C 11,3 km/h (2 Bft)
12.09.2018 21:00 15,2 C 81 % 1020,4 hPa 0,0 l/m 5,3 km/h (1 Bft) W 261 0 min 0 W/m 12,0 C 15,2 C 11,3 km/h (2 Bft)
12.09.2018 21:03 15,2 C 82 % 1020,4 hPa 0,0 l/m 3,9 km/h (1 Bft) W 281 0 min 0 W/m 12,1 C 15,2 C 8,0 km/h (2 Bft)
12.09.2018 21:06 15,2 C 82 % 1020,4 hPa 0,0 l/m 4,5 km/h (1 Bft) W 275 0 min 0 W/m 12,1 C 15,2 C 11,3 km/h (2 Bft)
12.09.2018 21:09 15,2 C 82 % 1020,4 hPa 0,0 l/m 3,7 km/h (1 Bft) W 281 0 min 0 W/m 12,1 C 15,2 C 6,4 km/h (2 Bft)
12.09.2018 21:12 15,2 C 82 % 1020,4 hPa 0,0 l/m 3,8 km/h (1 Bft) W 275 0 min 0 W/m 12,1 C 15,2 C 11,3 km/h (2 Bft)
12.09.2018 21:15 15,2 C 82 % 1020,3 hPa 0,0 l/m 3,4 km/h (1 Bft) NW 319 0 min 0 W/m 12,1 C 15,2 C 9,7 km/h (2 Bft)
12.09.2018 21:18 15,2 C 82 % 1020,4 hPa 0,0 l/m 3,2 km/h (1 Bft) W-NW 294 0 min 0 W/m 12,1 C 15,2 C 9,7 km/h (2 Bft)
12.09.2018 21:21 15,2 C 83 % 1020,5 hPa 0,0 l/m 3,1 km/h (1 Bft) W-NW 288 0 min 0 W/m 12,3 C 15,2 C 8,0 km/h (2 Bft)
12.09.2018 21:24 15,2 C 83 % 1020,5 hPa 0,0 l/m 5,6 km/h (2 Bft) W 267 0 min 0 W/m 12,3 C 15,2 C 12,9 km/h (3 Bft)
12.09.2018 21:27 15,1 C 83 % 1020,5 hPa 0,0 l/m 5,0 km/h (1 Bft) W 281 0 min 0 W/m 12,2 C 15,1 C 11,3 km/h (2 Bft)
12.09.2018 21:30 15,1 C 83 % 1020,5 hPa 0,0 l/m 5,5 km/h (2 Bft) W 266 0 min 0 W/m 12,2 C 15,1 C 16,1 km/h (3 Bft)
12.09.2018 21:33 15,1 C 83 % 1020,4 hPa 0,0 l/m 6,1 km/h (2 Bft) W 273 0 min 0 W/m 12,2 C 15,1 C 12,9 km/h (3 Bft)
12.09.2018 21:36 15,1 C 83 % 1020,5 hPa 0,0 l/m 6,7 km/h (2 Bft) W 272 0 min 0 W/m 12,2 C 14,9 C 14,5 km/h (3 Bft)
12.09.2018 21:39 15,1 C 83 % 1020,5 hPa 0,0 l/m 4,1 km/h (1 Bft) W 281 0 min 0 W/m 12,2 C 15,1 C 9,7 km/h (2 Bft)
12.09.2018 21:42 15,1 C 83 % 1020,4 hPa 0,0 l/m 3,0 km/h (1 Bft) W-NW 290 0 min 0 W/m 12,2 C 15,1 C 6,4 km/h (2 Bft)
12.09.2018 21:45 15,1 C 83 % 1020,5 hPa 0,0 l/m 2,4 km/h (1 Bft) W-NW 291 0 min 0 W/m 12,2 C 15,1 C 6,4 km/h (2 Bft)
12.09.2018 21:48 15,1 C 84 % 1020,5 hPa 0,0 l/m 4,2 km/h (1 Bft) W-NW 290 0 min 0 W/m 12,4 C 15,1 C 8,0 km/h (2 Bft)
12.09.2018 21:51 15,1 C 84 % 1020,5 hPa 0,0 l/m 3,4 km/h (1 Bft) W 261 0 min 0 W/m 12,4 C 15,1 C 9,7 km/h (2 Bft)
12.09.2018 21:54 15,1 C 84 % 1020,4 hPa 0,0 l/m 1,4 km/h (1 Bft) W 261 0 min 0 W/m 12,4 C 15,1 C 3,2 km/h (1 Bft)
12.09.2018 21:57 15,1 C 84 % 1020,5 hPa 0,0 l/m 3,1 km/h (1 Bft) W 261 0 min 0 W/m 12,4 C 15,1 C 6,4 km/h (2 Bft)
12.09.2018 22:00 15,1 C 84 % 1020,4 hPa 0,0 l/m 2,1 km/h (1 Bft) W 261 0 min 0 W/m 12,4 C 15,1 C 4,8 km/h (1 Bft)
12.09.2018 22:03 15,1 C 84 % 1020,5 hPa 0,0 l/m 2,1 km/h (1 Bft) W-NW 284 0 min 0 W/m 12,4 C 15,1 C 4,8 km/h (1 Bft)
12.09.2018 22:06 15,1 C 84 % 1020,5 hPa 0,0 l/m 4,8 km/h (1 Bft) NW 321 0 min 0 W/m 12,4 C 15,1 C 9,7 km/h (2 Bft)
12.09.2018 22:09 15,1 C 84 % 1020,5 hPa 0,0 l/m 3,2 km/h (1 Bft) W-NW 303 0 min 0 W/m 12,4 C 15,1 C 9,7 km/h (2 Bft)
12.09.2018 22:12 15,1 C 84 % 1020,5 hPa 0,0 l/m 2,4 km/h (1 Bft) NW 304 0 min 0 W/m 12,4 C 15,1 C 6,4 km/h (2 Bft)
12.09.2018 22:15 15,1 C 84 % 1020,5 hPa 0,0 l/m 4,4 km/h (1 Bft) NW 312 0 min 0 W/m 12,4 C 15,1 C 11,3 km/h (2 Bft)
12.09.2018 22:18 15,1 C 84 % 1020,5 hPa 0,0 l/m 5,6 km/h (2 Bft) NW 313 0 min 0 W/m 12,4 C 15,1 C 12,9 km/h (3 Bft)
12.09.2018 22:21 15,0 C 84 % 1020,5 hPa 0,0 l/m 5,3 km/h (1 Bft) NW 304 0 min 0 W/m 12,3 C 15,0 C 9,7 km/h (2 Bft)
12.09.2018 22:24 15,0 C 83 % 1020,5 hPa 0,0 l/m 3,0 km/h (1 Bft) NW 304 0 min 0 W/m 12,1 C 15,0 C 4,8 km/h (1 Bft)
12.09.2018 22:27 15,0 C 83 % 1020,5 hPa 0,0 l/m 2,3 km/h (1 Bft) NW 304 0 min 0 W/m 12,1 C 15,0 C 4,8 km/h (1 Bft)
12.09.2018 22:30 14,9 C 83 % 1020,4 hPa 0,0 l/m 1,9 km/h (1 Bft) NW 304 0 min 0 W/m 12,0 C 14,9 C 4,8 km/h (1 Bft)
12.09.2018 22:33 14,9 C 83 % 1020,5 hPa 0,0 l/m 3,2 km/h (1 Bft) W-NW 299 0 min 0 W/m 12,0 C 14,9 C 8,0 km/h (2 Bft)
12.09.2018 22:36 14,9 C 84 % 1020,5 hPa 0,0 l/m 1,0 km/h (0 Bft) W-NW 299 0 min 0 W/m 12,2 C 14,9 C 4,8 km/h (1 Bft)
12.09.2018 22:39 14,9 C 83 % 1020,5 hPa 0,0 l/m 1,3 km/h (1 Bft) W-NW 299 0 min 0 W/m 12,0 C 14,9 C 3,2 km/h (1 Bft)
12.09.2018 22:42 14,9 C 83 % 1020,5 hPa 0,0 l/m 3,3 km/h (1 Bft) W-NW 290 0 min 0 W/m 12,0 C 14,9 C 12,9 km/h (3 Bft)
12.09.2018 22:45 14,9 C 84 % 1020,5 hPa 0,0 l/m 1,8 km/h (1 Bft) W-NW 290 0 min 0 W/m 12,2 C 14,9 C 6,4 km/h (2 Bft)
12.09.2018 22:48 14,9 C 84 % 1020,6 hPa 0,0 l/m 2,6 km/h (1 Bft) W-NW 302 0 min 0 W/m 12,2 C 14,9 C 6,4 km/h (2 Bft)
12.09.2018 22:51 14,9 C 84 % 1020,6 hPa 0,0 l/m 1,4 km/h (1 Bft) W 273 0 min 0 W/m 12,2 C 14,9 C 6,4 km/h (2 Bft)
12.09.2018 22:54 14,9 C 84 % 1020,6 hPa 0,0 l/m 2,5 km/h (1 Bft) W-NW 294 0 min 0 W/m 12,2 C 14,9 C 6,4 km/h (2 Bft)
12.09.2018 22:57 14,8 C 84 % 1020,5 hPa 0,0 l/m 2,5 km/h (1 Bft) W-NW 294 0 min 0 W/m 12,1 C 14,8 C 4,8 km/h (1 Bft)
12.09.2018 23:00 14,8 C 84 % 1020,4 hPa 0,0 l/m 3,0 km/h (1 Bft) W-NW 294 0 min 0 W/m 12,1 C 14,8 C 6,4 km/h (2 Bft)
12.09.2018 23:03 14,8 C 84 % 1020,5 hPa 0,0 l/m 1,3 km/h (1 Bft) W-NW 294 0 min 0 W/m 12,1 C 14,8 C 4,8 km/h (1 Bft)
12.09.2018 23:06 14,8 C 84 % 1020,5 hPa 0,0 l/m 2,6 km/h (1 Bft) W-NW 294 0 min 0 W/m 12,1 C 14,8 C 8,0 km/h (2 Bft)
12.09.2018 23:09 14,7 C 84 % 1020,5 hPa 0,0 l/m 1,6 km/h (1 Bft) W 279 0 min 0 W/m 12,0 C 14,7 C 6,4 km/h (2 Bft)
12.09.2018 23:12 14,7 C 84 % 1020,5 hPa 0,0 l/m 2,7 km/h (1 Bft) W 279 0 min 0 W/m 12,0 C 14,7 C 6,4 km/h (2 Bft)
12.09.2018 23:15 14,7 C 84 % 1020,4 hPa 0,0 l/m 1,3 km/h (1 Bft) W 279 0 min 0 W/m 12,0 C 14,7 C 4,8 km/h (1 Bft)
12.09.2018 23:18 14,7 C 84 % 1020,4 hPa 0,0 l/m 2,4 km/h (1 Bft) W 281 0 min 0 W/m 12,0 C 14,7 C 6,4 km/h (2 Bft)
12.09.2018 23:21 14,6 C 84 % 1020,4 hPa 0,0 l/m 1,1 km/h (1 Bft) W 281 0 min 0 W/m 11,9 C 14,6 C 3,2 km/h (1 Bft)
12.09.2018 23:24 14,6 C 84 % 1020,4 hPa 0,0 l/m 1,2 km/h (1 Bft) W 281 0 min 0 W/m 11,9 C 14,6 C 6,4 km/h (2 Bft)
12.09.2018 23:27 14,6 C 84 % 1020,5 hPa 0,0 l/m 2,5 km/h (1 Bft) W-NW 289 0 min 0 W/m 11,9 C 14,6 C 9,7 km/h (2 Bft)
12.09.2018 23:30 14,5 C 84 % 1020,5 hPa 0,0 l/m 2,0 km/h (1 Bft) W-NW 289 0 min 0 W/m 11,8 C 14,5 C 4,8 km/h (1 Bft)
12.09.2018 23:33 14,5 C 84 % 1020,5 hPa 0,0 l/m 1,1 km/h (1 Bft) W-NW 289 0 min 0 W/m 11,8 C 14,5 C 3,2 km/h (1 Bft)
12.09.2018 23:36 14,4 C 84 % 1020,5 hPa 0,0 l/m 1,4 km/h (1 Bft) W-NW 289 0 min 0 W/m 11,7 C 14,4 C 4,8 km/h (1 Bft)
12.09.2018 23:39 14,4 C 84 % 1020,5 hPa 0,0 l/m 2,4 km/h (1 Bft) W-NW 289 0 min 0 W/m 11,7 C 14,4 C 6,4 km/h (2 Bft)
12.09.2018 23:42 14,4 C 84 % 1020,5 hPa 0,0 l/m 0,9 km/h (0 Bft) W-NW 289 0 min 0 W/m 11,7 C 14,4 C 3,2 km/h (1 Bft)
12.09.2018 23:45 14,3 C 84 % 1020,5 hPa 0,0 l/m 0,3 km/h (0 Bft) W-NW 289 0 min 0 W/m 11,6 C 14,3 C 3,2 km/h (1 Bft)
12.09.2018 23:48 14,3 C 84 % 1020,5 hPa 0,0 l/m 2,4 km/h (1 Bft) W-NW 289 0 min 0 W/m 11,6 C 14,3 C 4,8 km/h (1 Bft)
12.09.2018 23:51 14,3 C 84 % 1020,5 hPa 0,0 l/m 2,6 km/h (1 Bft) W-NW 290 0 min 0 W/m 11,6 C 14,3 C 8,0 km/h (2 Bft)
12.09.2018 23:54 14,3 C 84 % 1020,5 hPa 0,0 l/m 2,8 km/h (1 Bft) W-NW 286 0 min 0 W/m 11,6 C 14,3 C 6,4 km/h (2 Bft)
12.09.2018 23:57 14,2 C 84 % 1020,5 hPa 0,0 l/m 1,6 km/h (1 Bft) W-NW 286 0 min 0 W/m 11,5 C 14,2 C 4,8 km/h (1 Bft)
_ Min-Zeit 09:57 17:12 04:51 - 23:45 - - - - 17:24 09:42 21:54
Minimum _ 13,7 C 77 % 1014,9 hPa - 0,3 km/h (0 Bft) - - - - 11,4 C 11,1 C 3,2 km/h (1 Bft)
_ Max-Zeit 16:30 02:51 22:48 00:36 08:57 - - 00:00 11:57 00:00 16:36 00:42
Maximum _ 15,8 C 97 % 1020,6 hPa 0,2 l/m 13,3 km/h
SW (3 Bft)
- - 0 min 244 W/m 14,8 C 15,8 C 25,7 km/h
W (4 Bft)
Durchschnitt _ 14,8 C 90 % 1017,9 hPa #1,2 l/m 6,6 km/h (2 Bft) W - #0 min. 85 W/m 13,2 C 14,3 C 13,3 km/h (3 Bft)
2018 Cux-Wetter.de -Die Nutzung der Wetterdaten nur mit ausdrcklicher Genehmigung